Time,TemperatureF,DewpointF,PressureIn,WindDirection,WindDirectionDegrees,WindSpeedMPH,WindSpeedGustMPH,Humidity,HourlyPrecipIn,Conditions,Clouds,dailyrainin,SolarRadiationWatts/m^2,SoftwareType,DateUTC
2013-03-19 00:00:00,22.9,17.7,29.99,WNW,302,10.0,11.0,80,0.00,,,0.00,0,Wunderground v.1.15,2013-03-19 05:00:00,
2013-03-19 00:01:00,22.9,17.7,29.99,NW,304,13.0,13.0,80,0.00,,,0.00,0,Wunderground v.1.15,2013-03-19 05:01:00,
2013-03-19 00:05:00,22.8,17.6,29.99,NW,309,11.0,13.0,80,0.00,,,0.00,0,Wunderground v.1.15,2013-03-19 05:05:00,
2013-03-19 00:06:00,22.8,17.6,29.99,NW,306,14.0,14.0,80,0.00,,,0.00,0,Wunderground v.1.15,2013-03-19 05:06:00,
2013-03-19 00:08:00,22.8,17.3,29.99,WNW,296,11.0,14.0,79,0.00,,,0.00,0,Wunderground v.1.15,2013-03-19 05:08:00,
2013-03-19 00:11:00,22.7,16.6,29.99,NW,306,15.0,15.0,77,0.00,,,0.00,0,Wunderground v.1.15,2013-03-19 05:11:00,
2013-03-19 00:12:00,22.7,16.6,29.99,WNW,299,16.0,16.0,77,0.00,,,0.00,0,Wunderground v.1.15,2013-03-19 05:12:00,
2013-03-19 00:16:00,22.6,15.9,30.00,NW,306,16.0,20.0,75,0.00,,,0.00,0,Wunderground v.1.15,2013-03-19 05:16:00,
2013-03-19 00:18:00,22.5,16.1,30.00,WNW,292,16.0,20.0,76,0.00,,,0.00,0,Wunderground v.1.15,2013-03-19 05:18:00,
2013-03-19 00:19:00,22.5,16.1,30.00,WNW,303,15.0,20.0,76,0.00,,,0.00,0,Wunderground v.1.15,2013-03-19 05:19:00,
2013-03-19 00:22:00,22.4,16.0,30.00,WNW,300,12.0,17.0,76,0.00,,,0.00,0,Wunderground v.1.15,2013-03-19 05:22:00,
2013-03-19 00:24:00,22.4,16.3,30.00,WNW,301,11.0,17.0,77,0.00,,,0.00,0,Wunderground v.1.15,2013-03-19 05:24:00,
2013-03-19 00:25:00,22.3,16.2,30.00,WNW,298,12.0,17.0,77,0.00,,,0.00,0,Wunderground v.1.15,2013-03-19 05:25:00,
2013-03-19 00:27:00,22.3,16.2,30.00,NW,304,14.0,17.0,77,0.00,,,0.00,0,Wunderground v.1.15,2013-03-19 05:27:00,
2013-03-19 00:28:00,22.2,16.1,30.00,WNW,302,15.0,17.0,77,0.00,,,0.00,0,Wunderground v.1.15,2013-03-19 05:28:00,
2013-03-19 00:31:00,22.2,16.1,30.00,WNW,301,17.0,17.0,77,0.00,,,0.00,0,Wunderground v.1.15,2013-03-19 05:31:00,
2013-03-19 00:32:00,22.2,15.8,30.00,NW,314,12.0,17.0,76,0.00,,,0.00,0,Wunderground v.1.15,2013-03-19 05:32:00,
2013-03-19 00:33:00,22.2,16.1,30.00,WNW,300,14.0,17.0,77,0.00,,,0.00,0,Wunderground v.1.15,2013-03-19 05:33:00,
2013-03-19 00:34:00,22.1,16.0,30.00,WNW,290,15.0,17.0,77,0.00,,,0.00,0,Wunderground v.1.15,2013-03-19 05:34:00,
2013-03-19 00:37:00,22.1,15.7,30.00,NW,307,13.0,17.0,76,0.00,,,0.00,0,Wunderground v.1.15,2013-03-19 05:37:00,
2013-03-19 00:38:00,22.1,15.7,30.00,WNW,295,18.0,18.0,76,0.00,,,0.00,0,Wunderground v.1.15,2013-03-19 05:38:00,
2013-03-19 00:39:00,22.0,15.6,30.00,WNW,296,12.0,18.0,76,0.00,,,0.00,0,Wunderground v.1.15,2013-03-19 05:39:00,
2013-03-19 00:40:00,22.0,15.9,30.00,WNW,302,13.0,14.0,77,0.00,,,0.00,0,Wunderground v.1.15,2013-03-19 05:40:00,
2013-03-19 00:42:00,22.0,15.9,30.00,WNW,294,14.0,16.0,77,0.00,,,0.00,0,Wunderground v.1.15,2013-03-19 05:42:00,
2013-03-19 00:44:00,22.0,15.9,30.00,NW,305,13.0,17.0,77,0.00,,,0.00,0,Wunderground v.1.15,2013-03-19 05:44:00,
2013-03-19 00:48:00,21.8,15.4,29.99,NW,307,14.0,17.0,76,0.00,,,0.00,0,Wunderground v.1.15,2013-03-19 05:48:00,
2013-03-19 00:49:00,21.8,15.1,29.99,NW,304,17.0,17.0,75,0.00,,,0.00,0,Wunderground v.1.15,2013-03-19 05:49:00,
2013-03-19 00:52:00,21.8,15.4,30.00,NW,304,15.0,15.0,76,0.00,,,0.00,0,Wunderground v.1.15,2013-03-19 05:52:00,
2013-03-19 00:57:00,21.7,15.6,30.00,WNW,296,10.0,15.0,77,0.00,,,0.00,0,Wunderground v.1.15,2013-03-19 05:57:00,
2013-03-19 00:58:00,21.6,15.5,30.00,NW,311,10.0,15.0,77,0.00,,,0.00,0,Wunderground v.1.15,2013-03-19 05:58:00,
2013-03-19 01:00:00,21.6,15.8,30.00,WNW,300,11.0,12.0,78,0.00,,,0.00,0,Wunderground v.1.15,2013-03-19 06:00:00,
2013-03-19 01:02:00,21.6,15.8,30.00,WNW,292,10.0,12.0,78,0.00,,,0.00,0,Wunderground v.1.15,2013-03-19 06:02:00,
2013-03-19 01:04:00,21.6,15.8,30.00,WNW,287,10.0,12.0,78,0.00,,,0.00,0,Wunderground v.1.15,2013-03-19 06:04:00,
2013-03-19 01:08:00,21.5,15.7,30.00,West,281,8.0,13.0,78,0.00,,,0.00,0,Wunderground v.1.15,2013-03-19 06:08:00,
2013-03-19 01:09:00,21.5,15.7,30.00,WNW,289,9.0,13.0,78,0.00,,,0.00,0,Wunderground v.1.15,2013-03-19 06:09:00,
2013-03-19 01:10:00,21.5,16.0,30.00,WNW,294,8.0,11.0,79,0.00,,,0.00,0,Wunderground v.1.15,2013-03-19 06:10:00,
2013-03-19 01:14:00,21.5,16.0,30.01,WNW,294,10.0,13.0,79,0.00,,,0.00,0,Wunderground v.1.15,2013-03-19 06:14:00,
2013-03-19 01:16:00,21.5,15.7,30.01,WNW,297,11.0,14.0,78,0.00,,,0.00,0,Wunderground v.1.15,2013-03-19 06:16:00,
2013-03-19 01:17:00,21.4,15.9,30.01,WNW,294,15.0,15.0,79,0.00,,,0.00,0,Wunderground v.1.15,2013-03-19 06:17:00,
2013-03-19 01:21:00,21.4,15.6,30.01,WNW,302,12.0,13.0,78,0.00,,,0.00,0,Wunderground v.1.15,2013-03-19 06:21:00,
2013-03-19 01:22:00,21.4,15.6,30.01,WNW,294,10.0,13.0,78,0.00,,,0.00,0,Wunderground v.1.15,2013-03-19 06:22:00,
2013-03-19 01:25:00,21.4,15.9,30.01,WNW,286,10.0,13.0,79,0.00,,,0.00,0,Wunderground v.1.15,2013-03-19 06:25:00,
2013-03-19 01:27:00,21.3,16.1,30.01,WNW,282,10.0,13.0,80,0.00,,,0.00,0,Wunderground v.1.15,2013-03-19 06:27:00,
2013-03-19 01:29:00,21.3,16.1,30.00,WNW,290,11.0,13.0,80,0.00,,,0.00,0,Wunderground v.1.15,2013-03-19 06:29:00,
2013-03-19 01:31:00,21.2,16.0,30.00,WNW,296,12.0,12.0,80,0.00,,,0.00,0,Wunderground v.1.15,2013-03-19 06:31:00,
2013-03-19 01:32:00,21.2,16.0,30.01,West,281,12.0,12.0,80,0.00,,,0.00,0,Wunderground v.1.15,2013-03-19 06:32:00,
2013-03-19 01:35:00,21.2,16.0,30.01,WNW,289,14.0,15.0,80,0.00,,,0.00,0,Wunderground v.1.15,2013-03-19 06:35:00,
2013-03-19 01:37:00,21.2,16.0,30.01,WNW,295,18.0,18.0,80,0.00,,,0.00,0,Wunderground v.1.15,2013-03-19 06:37:00,
2013-03-19 01:38:00,21.1,15.6,30.01,WNW,294,12.0,18.0,79,0.00,,,0.00,0,Wunderground v.1.15,2013-03-19 06:38:00,
2013-03-19 01:43:00,21.1,15.3,30.01,WNW,292,12.0,18.0,78,0.00,,,0.00,0,Wunderground v.1.15,2013-03-19 06:43:00,
2013-03-19 01:44:00,21.1,15.3,30.02,WNW,284,18.0,18.0,78,0.00,,,0.00,0,Wunderground v.1.15,2013-03-19 06:44:00,
2013-03-19 01:45:00,21.1,15.3,30.02,WNW,288,15.0,18.0,78,0.00,,,0.00,0,Wunderground v.1.15,2013-03-19 06:45:00,
2013-03-19 01:47:00,21.1,15.3,30.02,WNW,290,12.0,19.0,78,0.00,,,0.00,0,Wunderground v.1.15,2013-03-19 06:47:00,
2013-03-19 01:49:00,21.1,15.3,30.02,West,280,13.0,19.0,78,0.00,,,0.00,0,Wunderground v.1.15,2013-03-19 06:49:00,
2013-03-19 01:53:00,21.1,15.6,30.02,WNW,290,23.0,23.0,79,0.00,,,0.00,0,Wunderground v.1.15,2013-03-19 06:53:00,
2013-03-19 01:54:00,21.0,15.2,30.02,WNW,295,12.0,23.0,78,0.00,,,0.00,0,Wunderground v.1.15,2013-03-19 06:54:00,
2013-03-19 01:56:00,21.0,15.5,30.02,WNW,290,15.0,23.0,79,0.00,,,0.00,0,Wunderground v.1.15,2013-03-19 06:56:00,
2013-03-19 01:59:00,21.0,15.2,30.03,WNW,284,16.0,23.0,78,0.00,,,0.00,0,Wunderground v.1.15,2013-03-19 06:59:00,
2013-03-19 02:00:00,21.0,15.2,30.03,WNW,296,14.0,15.0,78,0.00,,,0.00,0,Wunderground v.1.15,2013-03-19 07:00:00,
2013-03-19 02:04:00,21.0,15.2,30.03,WNW,285,15.0,18.0,78,0.00,,,0.00,0,Wunderground v.1.15,2013-03-19 07:04:00,
2013-03-19 02:05:00,21.0,15.2,30.03,WNW,294,15.0,18.0,78,0.00,,,0.00,0,Wunderground v.1.15,2013-03-19 07:05:00,
2013-03-19 02:06:00,21.0,15.2,30.04,WNW,295,11.0,18.0,78,0.00,,,0.00,0,Wunderground v.1.15,2013-03-19 07:06:00,
2013-03-19 02:11:00,21.0,15.5,30.03,WNW,288,13.0,17.0,79,0.00,,,0.00,0,Wunderground v.1.15,2013-03-19 07:11:00,
2013-03-19 02:13:00,21.0,15.2,30.04,WNW,285,13.0,17.0,78,0.00,,,0.00,0,Wunderground v.1.15,2013-03-19 07:13:00,
2013-03-19 02:17:00,20.9,15.4,30.04,WNW,292,14.0,17.0,79,0.00,,,0.00,0,Wunderground v.1.15,2013-03-19 07:17:00,
2013-03-19 02:20:00,20.9,15.4,30.04,WNW,287,12.0,13.0,79,0.00,,,0.00,0,Wunderground v.1.15,2013-03-19 07:20:00,
2013-03-19 02:22:00,20.9,15.7,30.04,WNW,285,11.0,13.0,80,0.00,,,0.00,0,Wunderground v.1.15,2013-03-19 07:22:00,
2013-03-19 02:27:00,20.8,15.6,30.03,West,279,13.0,15.0,80,0.00,,,0.00,0,Wunderground v.1.15,2013-03-19 07:27:00,
2013-03-19 02:28:00,20.8,15.6,30.03,WNW,294,13.0,15.0,80,0.00,,,0.00,0,Wunderground v.1.15,2013-03-19 07:28:00,
2013-03-19 02:33:00,20.8,15.3,30.04,WNW,291,13.0,17.0,79,0.00,,,0.00,0,Wunderground v.1.15,2013-03-19 07:33:00,
2013-03-19 02:34:00,20.7,15.2,30.04,WNW,285,14.0,17.0,79,0.00,,,0.00,0,Wunderground v.1.15,2013-03-19 07:34:00,
2013-03-19 02:39:00,20.8,15.3,30.04,WNW,284,16.0,18.0,79,0.00,,,0.00,0,Wunderground v.1.15,2013-03-19 07:39:00,
2013-03-19 02:40:00,20.7,15.2,30.04,WNW,295,19.0,19.0,79,0.00,,,0.00,0,Wunderground v.1.15,2013-03-19 07:40:00,
2013-03-19 02:41:00,20.7,15.2,30.05,WNW,288,16.0,16.0,79,0.00,,,0.00,0,Wunderground v.1.15,2013-03-19 07:41:00,
2013-03-19 02:44:00,20.7,15.2,30.05,WNW,296,18.0,20.0,79,0.00,,,0.00,0,Wunderground v.1.15,2013-03-19 07:44:00,
2013-03-19 02:45:00,20.7,15.2,30.05,WNW,292,15.0,20.0,79,0.00,,,0.00,0,Wunderground v.1.15,2013-03-19 07:45:00,
2013-03-19 02:49:00,20.7,15.2,30.05,WNW,286,18.0,20.0,79,0.00,,,0.00,0,Wunderground v.1.15,2013-03-19 07:49:00,
2013-03-19 02:50:00,20.7,15.2,30.05,WNW,298,16.0,16.0,79,0.00,,,0.00,0,Wunderground v.1.15,2013-03-19 07:50:00,
2013-03-19 02:51:00,20.7,15.2,30.05,WNW,297,16.0,18.0,79,0.00,,,0.00,0,Wunderground v.1.15,2013-03-19 07:51:00,
2013-03-19 02:52:00,20.7,15.2,30.05,West,275,20.0,20.0,79,0.00,,,0.00,0,Wunderground v.1.15,2013-03-19 07:52:00,
2013-03-19 02:56:00,20.7,14.9,30.05,WNW,298,16.0,21.0,78,0.00,,,0.00,0,Wunderground v.1.15,2013-03-19 07:56:00,
2013-03-19 02:57:00,20.6,14.8,30.05,WNW,285,19.0,21.0,78,0.00,,,0.00,0,Wunderground v.1.15,2013-03-19 07:57:00,
2013-03-19 02:58:00,20.6,14.8,30.05,WNW,296,16.0,21.0,78,0.00,,,0.00,0,Wunderground v.1.15,2013-03-19 07:58:00,
2013-03-19 03:02:00,20.6,15.1,30.05,WNW,289,17.0,17.0,79,0.00,,,0.00,0,Wunderground v.1.15,2013-03-19 08:02:00,
2013-03-19 03:03:00,20.6,15.1,30.05,WNW,288,14.0,17.0,79,0.00,,,0.00,0,Wunderground v.1.15,2013-03-19 08:03:00,
2013-03-19 03:08:00,20.5,15.0,30.05,WNW,288,19.0,19.0,79,0.00,,,0.00,0,Wunderground v.1.15,2013-03-19 08:08:00,
2013-03-19 03:09:00,20.5,15.0,30.05,WNW,292,17.0,19.0,79,0.00,,,0.00,0,Wunderground v.1.15,2013-03-19 08:09:00,
2013-03-19 03:10:00,20.5,15.0,30.05,WNW,296,17.0,19.0,79,0.00,,,0.00,0,Wunderground v.1.15,2013-03-19 08:10:00,
2013-03-19 03:13:00,20.5,15.0,30.05,WNW,288,17.0,18.0,79,0.00,,,0.00,0,Wunderground v.1.15,2013-03-19 08:13:00,
2013-03-19 03:15:00,20.5,15.0,30.06,WNW,284,14.0,18.0,79,0.00,,,0.00,0,Wunderground v.1.15,2013-03-19 08:15:00,
2013-03-19 03:17:00,20.5,15.3,30.05,WNW,290,16.0,18.0,80,0.00,,,0.00,0,Wunderground v.1.15,2013-03-19 08:17:00,
2013-03-19 03:18:00,20.5,15.0,30.05,West,281,17.0,18.0,79,0.00,,,0.00,0,Wunderground v.1.15,2013-03-19 08:18:00,
2013-03-19 03:20:00,20.5,15.0,30.05,WNW,295,11.0,15.0,79,0.00,,,0.00,0,Wunderground v.1.15,2013-03-19 08:20:00,
2013-03-19 03:22:00,20.5,15.0,30.05,WNW,286,17.0,17.0,79,0.00,,,0.00,0,Wunderground v.1.15,2013-03-19 08:22:00,
2013-03-19 03:24:00,20.4,14.9,30.05,WNW,291,9.0,17.0,79,0.00,,,0.00,0,Wunderground v.1.15,2013-03-19 08:24:00,
2013-03-19 03:27:00,20.4,15.2,30.05,WNW,301,12.0,17.0,80,0.00,,,0.00,0,Wunderground v.1.15,2013-03-19 08:27:00,
2013-03-19 03:29:00,20.4,14.9,30.05,WNW,294,12.0,17.0,79,0.00,,,0.00,0,Wunderground v.1.15,2013-03-19 08:29:00,
2013-03-19 03:30:00,20.4,14.9,30.05,WNW,296,12.0,15.0,79,0.00,,,0.00,0,Wunderground v.1.15,2013-03-19 08:30:00,
2013-03-19 03:32:00,20.4,14.9,30.05,WNW,296,13.0,19.0,79,0.00,,,0.00,0,Wunderground v.1.15,2013-03-19 08:32:00,
2013-03-19 03:33:00,20.4,14.9,30.05,WNW,292,17.0,19.0,79,0.00,,,0.00,0,Wunderground v.1.15,2013-03-19 08:33:00,
2013-03-19 03:34:00,20.4,14.9,30.05,WNW,287,14.0,19.0,79,0.00,,,0.00,0,Wunderground v.1.15,2013-03-19 08:34:00,
2013-03-19 03:35:00,20.4,14.9,30.05,WNW,298,14.0,19.0,79,0.00,,,0.00,0,Wunderground v.1.15,2013-03-19 08:35:00,
2013-03-19 03:38:00,20.4,14.9,30.05,WNW,295,13.0,19.0,79,0.00,,,0.00,0,Wunderground v.1.15,2013-03-19 08:38:00,
2013-03-19 03:41:00,20.4,14.9,30.05,West,281,10.0,15.0,79,0.00,,,0.00,0,Wunderground v.1.15,2013-03-19 08:41:00,
2013-03-19 03:42:00,20.4,15.2,30.04,WNW,292,13.0,15.0,80,0.00,,,0.00,0,Wunderground v.1.15,2013-03-19 08:42:00,
2013-03-19 03:43:00,20.4,15.2,30.04,WNW,297,14.0,15.0,80,0.00,,,0.00,0,Wunderground v.1.15,2013-03-19 08:43:00,
2013-03-19 03:46:00,20.4,14.9,30.04,WNW,294,11.0,17.0,79,0.00,,,0.00,0,Wunderground v.1.15,2013-03-19 08:46:00,
2013-03-19 03:48:00,20.3,14.8,30.04,WNW,292,13.0,17.0,79,0.00,,,0.00,0,Wunderground v.1.15,2013-03-19 08:48:00,
2013-03-19 03:52:00,20.3,14.8,30.04,WNW,292,15.0,15.0,79,0.00,,,0.00,0,Wunderground v.1.15,2013-03-19 08:52:00,
2013-03-19 03:53:00,20.3,14.8,30.04,WNW,294,15.0,16.0,79,0.00,,,0.00,0,Wunderground v.1.15,2013-03-19 08:53:00,
2013-03-19 03:57:00,20.2,14.7,30.04,WNW,302,12.0,16.0,79,0.00,,,0.00,0,Wunderground v.1.15,2013-03-19 08:57:00,
2013-03-19 03:58:00,20.2,14.7,30.04,WNW,296,15.0,16.0,79,0.00,,,0.00,0,Wunderground v.1.15,2013-03-19 08:58:00,
2013-03-19 04:03:00,20.2,14.4,30.04,WNW,288,12.0,14.0,78,0.00,,,0.00,0,Wunderground v.1.15,2013-03-19 09:03:00,
2013-03-19 04:04:00,20.2,14.4,30.04,WNW,294,15.0,16.0,78,0.00,,,0.00,0,Wunderground v.1.15,2013-03-19 09:04:00,
2013-03-19 04:08:00,20.2,14.4,30.05,WNW,302,18.0,18.0,78,0.00,,,0.00,0,Wunderground v.1.15,2013-03-19 09:08:00,
2013-03-19 04:09:00,20.2,14.4,30.05,WNW,294,15.0,18.0,78,0.00,,,0.00,0,Wunderground v.1.15,2013-03-19 09:09:00,
2013-03-19 04:13:00,20.2,14.4,30.05,WNW,286,12.0,16.0,78,0.00,,,0.00,0,Wunderground v.1.15,2013-03-19 09:13:00,
2013-03-19 04:14:00,20.2,14.4,30.06,WNW,292,13.0,16.0,78,0.00,,,0.00,0,Wunderground v.1.15,2013-03-19 09:14:00,
2013-03-19 04:15:00,20.2,14.4,30.06,WNW,289,12.0,16.0,78,0.00,,,0.00,0,Wunderground v.1.15,2013-03-19 09:15:00,
2013-03-19 04:17:00,20.1,14.6,30.06,WNW,294,18.0,18.0,79,0.00,,,0.00,0,Wunderground v.1.15,2013-03-19 09:17:00,
2013-03-19 04:18:00,20.1,14.6,30.06,WNW,294,10.0,18.0,79,0.00,,,0.00,0,Wunderground v.1.15,2013-03-19 09:18:00,
2013-03-19 04:20:00,20.1,14.6,30.06,WNW,296,14.0,14.0,79,0.00,,,0.00,0,Wunderground v.1.15,2013-03-19 09:20:00,
2013-03-19 04:23:00,20.0,14.5,30.05,WNW,296,14.0,16.0,79,0.00,,,0.00,0,Wunderground v.1.15,2013-03-19 09:23:00,
2013-03-19 04:24:00,20.0,14.5,30.05,WNW,292,12.0,16.0,79,0.00,,,0.00,0,Wunderground v.1.15,2013-03-19 09:24:00,
2013-03-19 04:25:00,20.0,14.5,30.05,WNW,298,15.0,18.0,79,0.00,,,0.00,0,Wunderground v.1.15,2013-03-19 09:25:00,
2013-03-19 04:28:00,20.0,14.2,30.05,WNW,299,14.0,18.0,78,0.00,,,0.00,0,Wunderground v.1.15,2013-03-19 09:28:00,
2013-03-19 04:31:00,20.0,13.9,30.05,NW,311,14.0,14.0,77,0.00,,,0.00,0,Wunderground v.1.15,2013-03-19 09:31:00,
2013-03-19 04:32:00,20.0,13.9,30.05,WNW,302,11.0,15.0,77,0.00,,,0.00,0,Wunderground v.1.15,2013-03-19 09:32:00,
2013-03-19 04:33:00,20.0,13.9,30.05,WNW,303,13.0,15.0,77,0.00,,,0.00,0,Wunderground v.1.15,2013-03-19 09:33:00,
2013-03-19 04:37:00,20.0,13.6,30.05,WNW,301,18.0,20.0,76,0.00,,,0.00,0,Wunderground v.1.15,2013-03-19 09:37:00,
2013-03-19 04:38:00,20.0,13.6,30.05,NW,307,17.0,20.0,76,0.00,,,0.00,0,Wunderground v.1.15,2013-03-19 09:38:00,
2013-03-19 04:43:00,20.0,13.6,30.05,NW,306,16.0,16.0,76,0.00,,,0.00,0,Wunderground v.1.15,2013-03-19 09:43:00,
2013-03-19 04:44:00,20.0,13.6,30.05,NW,304,13.0,16.0,76,0.00,,,0.00,0,Wunderground v.1.15,2013-03-19 09:44:00,
2013-03-19 04:45:00,19.9,13.6,30.05,WNW,298,16.0,18.0,76,0.00,,,0.00,0,Wunderground v.1.15,2013-03-19 09:45:00,
2013-03-19 04:47:00,19.9,13.6,30.05,WNW,298,17.0,18.0,76,0.00,,,0.00,0,Wunderground v.1.15,2013-03-19 09:47:00,
2013-03-19 04:49:00,19.9,13.6,30.05,NW,306,13.0,18.0,76,0.00,,,0.00,0,Wunderground v.1.15,2013-03-19 09:49:00,
2013-03-19 04:51:00,19.9,13.9,30.05,WNW,303,14.0,16.0,77,0.00,,,0.00,0,Wunderground v.1.15,2013-03-19 09:51:00,
2013-03-19 04:52:00,19.8,13.8,30.05,WNW,298,12.0,16.0,77,0.00,,,0.00,0,Wunderground v.1.15,2013-03-19 09:52:00,
2013-03-19 04:54:00,19.8,13.8,30.05,WNW,303,16.0,18.0,77,0.00,,,0.00,0,Wunderground v.1.15,2013-03-19 09:54:00,
2013-03-19 04:56:00,19.8,13.8,30.05,NW,309,13.0,18.0,77,0.00,,,0.00,0,Wunderground v.1.15,2013-03-19 09:56:00,
2013-03-19 04:57:00,19.8,13.8,30.05,NW,313,14.0,18.0,77,0.00,,,0.00,0,Wunderground v.1.15,2013-03-19 09:57:00,
2013-03-19 04:59:00,19.7,13.7,30.05,NW,307,12.0,18.0,77,0.00,,,0.00,0,Wunderground v.1.15,2013-03-19 09:59:00,
2013-03-19 05:02:00,19.7,13.4,30.05,NW,314,10.0,18.0,76,0.00,,,0.00,0,Wunderground v.1.15,2013-03-19 10:02:00,
2013-03-19 05:03:00,19.7,13.4,30.05,NW,304,12.0,18.0,76,0.00,,,0.00,0,Wunderground v.1.15,2013-03-19 10:03:00,
2013-03-19 05:04:00,19.7,13.7,30.05,NW,318,14.0,18.0,77,0.00,,,0.00,0,Wunderground v.1.15,2013-03-19 10:04:00,
2013-03-19 05:08:00,19.7,13.4,30.05,NW,306,14.0,19.0,76,0.00,,,0.00,0,Wunderground v.1.15,2013-03-19 10:08:00,
2013-03-19 05:10:00,19.6,13.6,30.05,NW,304,12.0,19.0,77,0.00,,,0.00,0,Wunderground v.1.15,2013-03-19 10:10:00,
2013-03-19 05:13:00,19.6,13.6,30.05,NW,315,13.0,15.0,77,0.00,,,0.00,0,Wunderground v.1.15,2013-03-19 10:13:00,
2013-03-19 05:15:00,19.5,13.5,30.05,NW,312,15.0,15.0,77,0.00,,,0.00,0,Wunderground v.1.15,2013-03-19 10:15:00,
2013-03-19 05:16:00,19.5,13.5,30.05,NW,319,15.0,15.0,77,0.00,,,0.00,0,Wunderground v.1.15,2013-03-19 10:16:00,
2013-03-19 05:18:00,19.5,13.5,30.06,WNW,301,16.0,16.0,77,0.00,,,0.00,0,Wunderground v.1.15,2013-03-19 10:18:00,
2013-03-19 05:20:00,19.4,13.4,30.06,WNW,302,17.0,17.0,77,0.00,,,0.00,0,Wunderground v.1.15,2013-03-19 10:20:00,
2013-03-19 05:21:00,19.4,13.4,30.06,NW,305,14.0,17.0,77,0.00,,,0.00,0,Wunderground v.1.15,2013-03-19 10:21:00,
2013-03-19 05:22:00,19.4,13.4,30.06,NW,304,15.0,17.0,77,0.00,,,0.00,0,Wunderground v.1.15,2013-03-19 10:22:00,
2013-03-19 05:27:00,19.4,13.4,30.06,NW,304,11.0,17.0,77,0.00,,,0.00,0,Wunderground v.1.15,2013-03-19 10:27:00,
2013-03-19 05:29:00,19.3,13.3,30.06,NW,304,11.0,17.0,77,0.00,,,0.00,0,Wunderground v.1.15,2013-03-19 10:29:00,
2013-03-19 05:32:00,19.3,13.3,30.06,WNW,289,13.0,15.0,77,0.00,,,0.00,0,Wunderground v.1.15,2013-03-19 10:32:00,
2013-03-19 05:34:00,19.3,13.3,30.06,WNW,296,11.0,15.0,77,0.00,,,0.00,0,Wunderground v.1.15,2013-03-19 10:34:00,
2013-03-19 05:37:00,19.3,13.3,30.06,WNW,296,12.0,15.0,77,0.00,,,0.00,0,Wunderground v.1.15,2013-03-19 10:37:00,
2013-03-19 05:39:00,19.3,13.3,30.06,NW,309,11.0,15.0,77,0.00,,,0.00,0,Wunderground v.1.15,2013-03-19 10:39:00,
2013-03-19 05:41:00,19.2,13.2,30.06,NW,308,15.0,15.0,77,0.00,,,0.00,0,Wunderground v.1.15,2013-03-19 10:41:00,
2013-03-19 05:42:00,19.2,12.9,30.07,NW,304,8.0,15.0,76,0.00,,,0.00,0,Wunderground v.1.15,2013-03-19 10:42:00,
2013-03-19 05:45:00,19.2,13.2,30.07,WNW,302,10.0,15.0,77,0.00,,,0.00,0,Wunderground v.1.15,2013-03-19 10:45:00,
2013-03-19 05:46:00,19.1,13.1,30.07,NW,304,9.0,15.0,77,0.00,,,0.00,0,Wunderground v.1.15,2013-03-19 10:46:00,
2013-03-19 05:47:00,19.1,13.1,30.07,NW,311,11.0,15.0,77,0.00,,,0.00,0,Wunderground v.1.15,2013-03-19 10:47:00,
2013-03-19 05:48:00,19.1,13.1,30.07,WNW,302,11.0,15.0,77,0.00,,,0.00,0,Wunderground v.1.15,2013-03-19 10:48:00,
2013-03-19 05:52:00,19.1,13.1,30.07,WNW,297,11.0,12.0,77,0.00,,,0.00,0,Wunderground v.1.15,2013-03-19 10:52:00,
2013-03-19 05:53:00,19.1,13.1,30.07,NW,306,8.0,12.0,77,0.00,,,0.00,0,Wunderground v.1.15,2013-03-19 10:53:00,
2013-03-19 05:57:00,19.0,13.0,30.08,WNW,300,8.0,12.0,77,0.00,,,0.00,0,Wunderground v.1.15,2013-03-19 10:57:00,
2013-03-19 05:58:00,19.0,13.0,30.08,NW,306,10.0,12.0,77,0.00,,,0.00,0,Wunderground v.1.15,2013-03-19 10:58:00,
2013-03-19 06:01:00,19.0,13.0,30.08,WNW,302,9.0,11.0,77,0.00,,,0.00,0,Wunderground v.1.15,2013-03-19 11:01:00,
2013-03-19 06:03:00,19.0,13.0,30.08,WNW,298,10.0,11.0,77,0.00,,,0.00,0,Wunderground v.1.15,2013-03-19 11:03:00,
2013-03-19 06:04:00,18.9,12.9,30.08,WNW,302,8.0,11.0,77,0.00,,,0.00,0,Wunderground v.1.15,2013-03-19 11:04:00,
2013-03-19 06:07:00,18.9,13.2,30.08,NW,306,10.0,11.0,78,0.00,,,0.00,0,Wunderground v.1.15,2013-03-19 11:07:00,
2013-03-19 06:10:00,18.9,12.9,30.08,NW,304,10.0,12.0,77,0.00,,,0.00,0,Wunderground v.1.15,2013-03-19 11:10:00,
2013-03-19 06:11:00,18.9,12.9,30.08,NW,310,9.0,10.0,77,0.00,,,0.00,0,Wunderground v.1.15,2013-03-19 11:11:00,
2013-03-19 06:16:00,18.8,12.8,30.08,NW,305,10.0,11.0,77,0.00,,,0.00,0,Wunderground v.1.15,2013-03-19 11:16:00,
2013-03-19 06:17:00,18.8,12.8,30.08,WNW,298,10.0,11.0,77,0.00,,,0.00,0,Wunderground v.1.15,2013-03-19 11:17:00,
2013-03-19 06:18:00,18.8,13.1,30.08,WNW,298,10.0,11.0,78,0.00,,,0.00,0,Wunderground v.1.15,2013-03-19 11:18:00,
2013-03-19 06:19:00,18.8,13.1,30.08,NW,306,11.0,11.0,78,0.00,,,0.00,0,Wunderground v.1.15,2013-03-19 11:19:00,
2013-03-19 06:22:00,18.7,13.0,30.08,NW,304,7.0,11.0,78,0.00,,,0.00,0,Wunderground v.1.15,2013-03-19 11:22:00,
2013-03-19 06:23:00,18.7,13.0,30.08,NW,309,9.0,11.0,78,0.00,,,0.00,0,Wunderground v.1.15,2013-03-19 11:23:00,
2013-03-19 06:26:00,18.7,13.0,30.08,NW,309,8.0,11.0,78,0.00,,,0.00,0,Wunderground v.1.15,2013-03-19 11:26:00,
2013-03-19 06:27:00,18.7,13.3,30.08,WNW,302,7.0,11.0,79,0.00,,,0.00,0,Wunderground v.1.15,2013-03-19 11:27:00,
2013-03-19 06:28:00,18.6,13.2,30.08,NW,308,9.0,11.0,79,0.00,,,0.00,0,Wunderground v.1.15,2013-03-19 11:28:00,
2013-03-19 06:30:00,18.6,13.2,30.09,NW,314,6.0,11.0,79,0.00,,,0.00,0,Wunderground v.1.15,2013-03-19 11:30:00,
2013-03-19 06:32:00,18.6,13.2,30.09,NW,308,9.0,9.0,79,0.00,,,0.00,0,Wunderground v.1.15,2013-03-19 11:32:00,
2013-03-19 06:33:00,18.6,13.2,30.09,NW,313,9.0,10.0,79,0.00,,,0.00,0,Wunderground v.1.15,2013-03-19 11:33:00,
2013-03-19 06:37:00,18.5,13.4,30.09,WNW,298,8.0,10.0,80,0.00,,,0.00,0,Wunderground v.1.15,2013-03-19 11:37:00,
2013-03-19 06:38:00,18.5,13.4,30.10,WNW,302,8.0,10.0,80,0.00,,,0.00,0,Wunderground v.1.15,2013-03-19 11:38:00,
2013-03-19 06:42:00,18.5,13.4,30.09,WNW,301,9.0,11.0,80,0.00,,,0.00,0,Wunderground v.1.15,2013-03-19 11:42:00,
2013-03-19 06:43:00,18.5,13.4,30.09,NW,305,9.0,11.0,80,0.00,,,0.00,0,Wunderground v.1.15,2013-03-19 11:43:00,
2013-03-19 06:44:00,18.5,13.4,30.10,WNW,300,8.0,11.0,80,0.00,,,0.00,0,Wunderground v.1.15,2013-03-19 11:44:00,
2013-03-19 06:47:00,18.5,13.4,30.10,WNW,296,9.0,12.0,80,0.00,,,0.00,0,Wunderground v.1.15,2013-03-19 11:47:00,
2013-03-19 06:48:00,18.5,13.4,30.10,NW,304,11.0,12.0,80,0.00,,,0.00,0,Wunderground v.1.15,2013-03-19 11:48:00,
2013-03-19 06:49:00,18.5,13.4,30.10,WNW,295,9.0,12.0,80,0.00,,,0.00,0,Wunderground v.1.15,2013-03-19 11:49:00,
2013-03-19 06:53:00,18.5,13.4,30.09,WNW,300,9.0,11.0,80,0.00,,,0.00,0,Wunderground v.1.15,2013-03-19 11:53:00,
2013-03-19 06:54:00,18.5,13.4,30.09,NW,306,10.0,11.0,80,0.00,,,0.00,0,Wunderground v.1.15,2013-03-19 11:54:00,
2013-03-19 06:55:00,18.4,13.3,30.09,WNW,297,8.0,11.0,80,0.00,,,0.00,0,Wunderground v.1.15,2013-03-19 11:55:00,
2013-03-19 06:57:00,18.4,13.3,30.09,WNW,302,9.0,11.0,80,0.00,,,0.00,0,Wunderground v.1.15,2013-03-19 11:57:00,
2013-03-19 06:59:00,18.4,13.3,30.10,NW,313,8.0,11.0,80,0.00,,,0.00,0,Wunderground v.1.15,2013-03-19 11:59:00,
2013-03-19 07:00:00,18.4,13.3,30.10,WNW,301,8.0,9.0,80,0.00,,,0.00,0,Wunderground v.1.15,2013-03-19 12:00:00,
2013-03-19 07:02:00,18.3,13.2,30.10,NW,306,8.0,12.0,80,0.00,,,0.00,0,Wunderground v.1.15,2013-03-19 12:02:00,
2013-03-19 07:04:00,18.3,12.9,30.10,NW,311,10.0,13.0,79,0.00,,,0.00,0,Wunderground v.1.15,2013-03-19 12:04:00,
2013-03-19 07:05:00,18.3,12.6,30.10,NW,311,11.0,13.0,78,0.00,,,0.00,0,Wunderground v.1.15,2013-03-19 12:05:00,
2013-03-19 07:10:00,18.2,12.2,30.10,NW,311,11.0,13.0,77,0.00,,,0.00,0,Wunderground v.1.15,2013-03-19 12:10:00,
2013-03-19 07:11:00,18.2,12.2,30.10,WNW,302,11.0,12.0,77,0.00,,,0.00,0,Wunderground v.1.15,2013-03-19 12:11:00,
2013-03-19 07:15:00,18.2,12.2,30.10,NW,305,9.0,12.0,77,0.00,,,0.00,5,Wunderground v.1.15,2013-03-19 12:15:00,
2013-03-19 07:16:00,18.2,12.5,30.10,WNW,299,11.0,12.0,78,0.00,,,0.00,5,Wunderground v.1.15,2013-03-19 12:16:00,
2013-03-19 07:20:00,18.1,12.1,30.10,WNW,303,9.0,9.0,77,0.00,,,0.00,7,Wunderground v.1.15,2013-03-19 12:20:00,
2013-03-19 07:22:00,18.1,12.1,30.11,WNW,302,8.0,11.0,77,0.00,,,0.00,7,Wunderground v.1.15,2013-03-19 12:22:00,
2013-03-19 07:23:00,18.1,12.1,30.11,NW,304,8.0,11.0,77,0.00,,,0.00,9,Wunderground v.1.15,2013-03-19 12:23:00,
2013-03-19 07:24:00,18.1,12.1,30.11,WNW,298,7.0,11.0,77,0.00,,,0.00,11,Wunderground v.1.15,2013-03-19 12:24:00,
2013-03-19 07:25:00,18.1,12.4,30.11,WNW,302,7.0,11.0,78,0.00,,,0.00,12,Wunderground v.1.15,2013-03-19 12:25:00,
2013-03-19 07:28:00,18.1,12.7,30.11,WNW,297,7.0,11.0,79,0.00,,,0.00,14,Wunderground v.1.15,2013-03-19 12:28:00,
2013-03-19 07:29:00,18.1,12.4,30.11,WNW,297,7.0,11.0,78,0.00,,,0.00,16,Wunderground v.1.15,2013-03-19 12:29:00,
2013-03-19 07:32:00,18.1,12.7,30.11,WNW,290,8.0,8.0,79,0.00,,,0.00,18,Wunderground v.1.15,2013-03-19 12:32:00,
2013-03-19 07:33:00,18.1,12.7,30.12,WNW,289,6.0,8.0,79,0.00,,,0.00,21,Wunderground v.1.15,2013-03-19 12:33:00,
2013-03-19 07:36:00,18.1,13.0,30.12,WNW,286,7.0,8.0,80,0.00,,,0.00,25,Wunderground v.1.15,2013-03-19 12:36:00,
2013-03-19 07:38:00,18.0,13.2,30.12,WNW,289,6.0,8.0,81,0.00,,,0.00,26,Wunderground v.1.15,2013-03-19 12:38:00,
2013-03-19 07:39:00,18.1,13.3,30.12,WNW,286,6.0,8.0,81,0.00,,,0.00,26,Wunderground v.1.15,2013-03-19 12:39:00,
2013-03-19 07:42:00,18.1,13.5,30.12,WNW,286,9.0,10.0,82,0.00,,,0.00,30,Wunderground v.1.15,2013-03-19 12:42:00,
2013-03-19 07:43:00,18.1,13.5,30.12,WNW,294,10.0,10.0,82,0.00,,,0.00,32,Wunderground v.1.15,2013-03-19 12:43:00,
2013-03-19 07:44:00,18.1,13.5,30.12,WNW,302,10.0,10.0,82,0.00,,,0.00,32,Wunderground v.1.15,2013-03-19 12:44:00,
2013-03-19 07:45:00,18.1,13.5,30.12,WNW,294,10.0,10.0,82,0.00,,,0.00,33,Wunderground v.1.15,2013-03-19 12:45:00,
2013-03-19 07:47:00,18.2,13.6,30.12,WNW,291,9.0,10.0,82,0.00,,,0.00,37,Wunderground v.1.15,2013-03-19 12:47:00,
2013-03-19 07:48:00,18.2,13.3,30.12,WNW,294,8.0,11.0,81,0.00,,,0.00,40,Wunderground v.1.15,2013-03-19 12:48:00,
2013-03-19 07:49:00,18.3,13.4,30.12,WNW,286,8.0,11.0,81,0.00,,,0.00,40,Wunderground v.1.15,2013-03-19 12:49:00,
2013-03-19 07:50:00,18.3,13.4,30.12,WNW,294,11.0,11.0,81,0.00,,,0.00,42,Wunderground v.1.15,2013-03-19 12:50:00,
2013-03-19 07:52:00,18.4,13.5,30.12,WNW,294,8.0,12.0,81,0.00,,,0.00,42,Wunderground v.1.15,2013-03-19 12:52:00,
2013-03-19 07:53:00,18.5,13.6,30.12,NW,304,10.0,12.0,81,0.00,,,0.00,42,Wunderground v.1.15,2013-03-19 12:53:00,
2013-03-19 07:55:00,18.5,13.6,30.13,WNW,289,9.0,12.0,81,0.00,,,0.00,46,Wunderground v.1.15,2013-03-19 12:55:00,
2013-03-19 07:56:00,18.5,13.6,30.13,WNW,299,8.0,12.0,81,0.00,,,0.00,46,Wunderground v.1.15,2013-03-19 12:56:00,
2013-03-19 07:58:00,18.6,13.7,30.13,WNW,288,8.0,12.0,81,0.00,,,0.00,54,Wunderground v.1.15,2013-03-19 12:58:00,
2013-03-19 08:00:00,18.7,13.8,30.13,WNW,300,7.0,9.0,81,0.00,,,0.00,54,Wunderground v.1.15,2013-03-19 13:00:00,
2013-03-19 08:01:00,18.8,13.9,30.13,WNW,297,8.0,10.0,81,0.00,,,0.00,58,Wunderground v.1.15,2013-03-19 13:01:00,
2013-03-19 08:02:00,18.8,13.9,30.13,WNW,290,10.0,12.0,81,0.00,,,0.00,58,Wunderground v.1.15,2013-03-19 13:02:00,
2013-03-19 08:04:00,18.9,14.0,30.13,WNW,298,8.0,12.0,81,0.00,,,0.00,67,Wunderground v.1.15,2013-03-19 13:04:00,
2013-03-19 08:05:00,18.9,14.0,30.13,WNW,302,7.0,12.0,81,0.00,,,0.00,67,Wunderground v.1.15,2013-03-19 13:05:00,
2013-03-19 08:07:00,18.9,14.0,30.13,NW,307,12.0,12.0,81,0.00,,,0.00,81,Wunderground v.1.15,2013-03-19 13:07:00,
2013-03-19 08:10:00,19.0,13.8,30.13,NW,310,13.0,13.0,80,0.00,,,0.00,88,Wunderground v.1.15,2013-03-19 13:10:00,
2013-03-19 08:11:00,19.0,13.8,30.13,NW,323,12.0,15.0,80,0.00,,,0.00,86,Wunderground v.1.15,2013-03-19 13:11:00,
2013-03-19 08:13:00,19.0,13.6,30.13,NW,313,16.0,16.0,79,0.00,,,0.00,95,Wunderground v.1.15,2013-03-19 13:13:00,
2013-03-19 08:14:00,19.0,13.6,30.13,NW,306,12.0,16.0,79,0.00,,,0.00,95,Wunderground v.1.15,2013-03-19 13:14:00,
2013-03-19 08:17:00,19.0,13.3,30.13,NW,313,12.0,16.0,78,0.00,,,0.00,95,Wunderground v.1.15,2013-03-19 13:17:00,
2013-03-19 08:19:00,19.1,13.4,30.13,NW,309,14.0,16.0,78,0.00,,,0.00,113,Wunderground v.1.15,2013-03-19 13:19:00,
2013-03-19 08:20:00,19.1,13.4,30.14,WNW,293,13.0,13.0,78,0.00,,,0.00,135,Wunderground v.1.15,2013-03-19 13:20:00,
2013-03-19 08:22:00,19.2,13.5,30.14,WNW,294,15.0,16.0,78,0.00,,,0.00,144,Wunderground v.1.15,2013-03-19 13:22:00,
2013-03-19 08:24:00,19.2,13.5,30.14,NW,307,13.0,16.0,78,0.00,,,0.00,156,Wunderground v.1.15,2013-03-19 13:24:00,
2013-03-19 08:25:00,19.3,13.6,30.14,NW,310,14.0,16.0,78,0.00,,,0.00,169,Wunderground v.1.15,2013-03-19 13:25:00,
2013-03-19 08:27:00,19.3,13.6,30.14,NW,310,11.0,16.0,78,0.00,,,0.00,171,Wunderground v.1.15,2013-03-19 13:27:00,
2013-03-19 08:31:00,19.5,13.8,30.14,NW,307,11.0,13.0,78,0.00,,,0.00,169,Wunderground v.1.15,2013-03-19 13:31:00,
2013-03-19 08:32:00,19.6,14.1,30.14,NW,323,15.0,15.0,79,0.00,,,0.00,185,Wunderground v.1.15,2013-03-19 13:32:00,
2013-03-19 08:35:00,19.7,14.0,30.14,NW,315,12.0,15.0,78,0.00,,,0.00,142,Wunderground v.1.15,2013-03-19 13:35:00,
2013-03-19 08:36:00,19.7,14.0,30.15,NW,314,11.0,15.0,78,0.00,,,0.00,142,Wunderground v.1.15,2013-03-19 13:36:00,
2013-03-19 08:37:00,19.7,13.7,30.15,NW,306,13.0,15.0,77,0.00,,,0.00,130,Wunderground v.1.15,2013-03-19 13:37:00,
2013-03-19 08:38:00,19.7,13.7,30.14,WNW,302,14.0,15.0,77,0.00,,,0.00,127,Wunderground v.1.15,2013-03-19 13:38:00,
2013-03-19 08:41:00,19.6,13.3,30.15,NW,309,12.0,12.0,76,0.00,,,0.00,151,Wunderground v.1.15,2013-03-19 13:41:00,
2013-03-19 08:43:00,19.6,13.3,30.15,WNW,303,13.0,14.0,76,0.00,,,0.00,199,Wunderground v.1.15,2013-03-19 13:43:00,
2013-03-19 08:44:00,19.6,13.6,30.15,NW,304,11.0,14.0,77,0.00,,,0.00,192,Wunderground v.1.15,2013-03-19 13:44:00,
2013-03-19 08:46:00,19.7,13.7,30.15,NW,323,12.0,14.0,77,0.00,,,0.00,199,Wunderground v.1.15,2013-03-19 13:46:00,
2013-03-19 08:49:00,19.7,13.7,30.15,NW,310,10.0,14.0,77,0.00,,,0.00,239,Wunderground v.1.15,2013-03-19 13:49:00,
2013-03-19 08:50:00,19.7,13.4,30.15,NW,321,12.0,12.0,76,0.00,,,0.00,248,Wunderground v.1.15,2013-03-19 13:50:00,
2013-03-19 08:51:00,19.7,13.4,30.15,NW,323,12.0,12.0,76,0.00,,,0.00,248,Wunderground v.1.15,2013-03-19 13:51:00,
2013-03-19 08:52:00,19.8,13.5,30.15,NW,311,15.0,15.0,76,0.00,,,0.00,253,Wunderground v.1.15,2013-03-19 13:52:00,
2013-03-19 08:55:00,19.9,13.6,30.15,NW,323,10.0,15.0,76,0.00,,,0.00,267,Wunderground v.1.15,2013-03-19 13:55:00,
2013-03-19 08:56:00,19.9,13.3,30.15,NW,322,15.0,15.0,75,0.00,,,0.00,250,Wunderground v.1.15,2013-03-19 13:56:00,
2013-03-19 08:58:00,19.9,13.3,30.15,NW,320,13.0,16.0,75,0.00,,,0.00,246,Wunderground v.1.15,2013-03-19 13:58:00,
2013-03-19 09:00:00,20.0,13.0,30.16,NW,304,10.0,13.0,74,0.00,,,0.00,248,Wunderground v.1.15,2013-03-19 14:00:00,
2013-03-19 09:02:00,20.0,13.0,30.16,NNW,327,10.0,13.0,74,0.00,,,0.00,234,Wunderground v.1.15,2013-03-19 14:02:00,
2013-03-19 09:04:00,20.1,13.1,30.16,NW,314,10.0,14.0,74,0.00,,,0.00,279,Wunderground v.1.15,2013-03-19 14:04:00,
2013-03-19 09:06:00,20.2,13.2,30.16,WNW,295,11.0,14.0,74,0.00,,,0.00,274,Wunderground v.1.15,2013-03-19 14:06:00,
2013-03-19 09:07:00,20.3,13.3,30.16,NW,304,13.0,16.0,74,0.00,,,0.00,306,Wunderground v.1.15,2013-03-19 14:07:00,
2013-03-19 09:10:00,20.3,13.0,30.16,NW,306,12.0,16.0,73,0.00,,,0.00,322,Wunderground v.1.15,2013-03-19 14:10:00,
2013-03-19 09:13:00,20.5,13.2,30.17,NW,318,11.0,13.0,73,0.00,,,0.00,325,Wunderground v.1.15,2013-03-19 14:13:00,
2013-03-19 09:15:00,20.6,13.0,30.17,NW,319,13.0,14.0,72,0.00,,,0.00,327,Wunderground v.1.15,2013-03-19 14:15:00,
2013-03-19 09:16:00,20.6,13.0,30.17,NW,325,11.0,14.0,72,0.00,,,0.00,327,Wunderground v.1.15,2013-03-19 14:16:00,
2013-03-19 09:17:00,20.5,12.3,30.17,NW,317,7.0,14.0,70,0.00,,,0.00,281,Wunderground v.1.15,2013-03-19 14:17:00,
2013-03-19 09:18:00,20.5,12.6,30.17,NW,313,13.0,14.0,71,0.00,,,0.00,276,Wunderground v.1.15,2013-03-19 14:18:00,
2013-03-19 09:21:00,20.4,12.2,30.17,NNW,327,6.0,11.0,70,0.00,,,0.00,309,Wunderground v.1.15,2013-03-19 14:21:00,
2013-03-19 09:23:00,20.3,12.1,30.17,NW,311,10.0,11.0,70,0.00,,,0.00,274,Wunderground v.1.15,2013-03-19 14:23:00,
2013-03-19 09:24:00,20.3,12.4,30.17,NNW,332,9.0,11.0,71,0.00,,,0.00,301,Wunderground v.1.15,2013-03-19 14:24:00,
2013-03-19 09:26:00,20.3,12.4,30.17,NNW,331,6.0,11.0,71,0.00,,,0.00,327,Wunderground v.1.15,2013-03-19 14:26:00,
2013-03-19 09:30:00,20.3,12.4,30.17,NW,324,8.0,13.0,71,0.00,,,0.00,345,Wunderground v.1.15,2013-03-19 14:30:00,
2013-03-19 09:32:00,20.4,12.2,30.17,NNW,327,12.0,12.0,70,0.00,,,0.00,371,Wunderground v.1.15,2013-03-19 14:32:00,
2013-03-19 09:35:00,20.7,12.8,30.17,NNW,333,5.0,12.0,71,0.00,,,0.00,397,Wunderground v.1.15,2013-03-19 14:35:00,
2013-03-19 09:37:00,20.7,12.5,30.17,NW,321,8.0,12.0,70,0.00,,,0.00,406,Wunderground v.1.15,2013-03-19 14:37:00,
2013-03-19 09:38:00,20.7,12.8,30.17,NNW,331,5.0,12.0,71,0.00,,,0.00,378,Wunderground v.1.15,2013-03-19 14:38:00,
2013-03-19 09:42:00,20.8,12.6,30.17,NNW,333,6.0,11.0,70,0.00,,,0.00,364,Wunderground v.1.15,2013-03-19 14:42:00,
2013-03-19 09:44:00,20.8,12.2,30.17,NW,315,9.0,12.0,69,0.00,,,0.00,343,Wunderground v.1.15,2013-03-19 14:44:00,
2013-03-19 09:47:00,20.9,12.6,30.17,NW,315,8.0,12.0,70,0.00,,,0.00,431,Wunderground v.1.15,2013-03-19 14:47:00,
2013-03-19 09:49:00,21.1,12.8,30.17,NW,325,9.0,12.0,70,0.00,,,0.00,439,Wunderground v.1.15,2013-03-19 14:49:00,
2013-03-19 09:53:00,21.6,13.6,30.17,NW,309,9.0,13.0,71,0.00,,,0.00,452,Wunderground v.1.15,2013-03-19 14:53:00,
2013-03-19 09:54:00,21.7,13.4,30.17,NW,304,10.0,13.0,70,0.00,,,0.00,457,Wunderground v.1.15,2013-03-19 14:54:00,
2013-03-19 09:55:00,21.7,13.4,30.17,WNW,296,14.0,14.0,70,0.00,,,0.00,454,Wunderground v.1.15,2013-03-19 14:55:00,
2013-03-19 09:56:00,21.8,13.2,30.17,NW,312,12.0,14.0,69,0.00,,,0.00,455,Wunderground v.1.15,2013-03-19 14:56:00,
2013-03-19 09:59:00,21.8,13.5,30.17,NW,304,11.0,14.0,70,0.00,,,0.00,475,Wunderground v.1.15,2013-03-19 14:59:00,
2013-03-19 10:01:00,22.0,14.0,30.17,WNW,300,8.0,13.0,71,0.00,,,0.00,436,Wunderground v.1.15,2013-03-19 15:01:00,
2013-03-19 10:02:00,22.0,13.7,30.17,WNW,302,12.0,13.0,70,0.00,,,0.00,461,Wunderground v.1.15,2013-03-19 15:02:00,
2013-03-19 10:04:00,21.9,13.3,30.18,NW,316,10.0,13.0,69,0.00,,,0.00,457,Wunderground v.1.15,2013-03-19 15:04:00,
2013-03-19 10:06:00,21.7,12.8,30.18,WNW,302,9.0,13.0,68,0.00,,,0.00,492,Wunderground v.1.15,2013-03-19 15:06:00,
2013-03-19 10:09:00,22.0,14.0,30.18,NW,320,10.0,13.0,71,0.00,,,0.00,508,Wunderground v.1.15,2013-03-19 15:09:00,
2013-03-19 10:10:00,22.1,13.8,30.18,WNW,302,8.0,9.0,70,0.00,,,0.00,513,Wunderground v.1.15,2013-03-19 15:10:00,
2013-03-19 10:13:00,22.2,13.9,30.18,NW,317,10.0,10.0,70,0.00,,,0.00,517,Wunderground v.1.15,2013-03-19 15:13:00,
2013-03-19 10:16:00,22.2,13.9,30.19,WNW,301,9.0,11.0,70,0.00,,,0.00,494,Wunderground v.1.15,2013-03-19 15:16:00,
2013-03-19 10:17:00,22.3,14.3,30.19,WNW,296,13.0,14.0,71,0.00,,,0.00,499,Wunderground v.1.15,2013-03-19 15:17:00,
2013-03-19 10:19:00,22.5,13.9,30.19,NW,313,12.0,15.0,69,0.00,,,0.00,529,Wunderground v.1.15,2013-03-19 15:19:00,
2013-03-19 10:22:00,22.6,14.3,30.19,NW,314,11.0,11.0,70,0.00,,,0.00,538,Wunderground v.1.15,2013-03-19 15:22:00,
2013-03-19 10:23:00,22.6,14.3,30.19,WNW,295,9.0,11.0,70,0.00,,,0.00,533,Wunderground v.1.15,2013-03-19 15:23:00,
2013-03-19 10:26:00,22.7,14.1,30.19,NW,312,9.0,11.0,69,0.00,,,0.00,534,Wunderground v.1.15,2013-03-19 15:26:00,
2013-03-19 10:27:00,22.7,13.7,30.19,WNW,292,7.0,12.0,68,0.00,,,0.00,552,Wunderground v.1.15,2013-03-19 15:27:00,
2013-03-19 10:29:00,22.8,14.5,30.19,NW,313,10.0,12.0,70,0.00,,,0.00,527,Wunderground v.1.15,2013-03-19 15:29:00,
2013-03-19 10:32:00,22.8,13.8,30.19,NW,309,10.0,11.0,68,0.00,,,0.00,548,Wunderground v.1.15,2013-03-19 15:32:00,
2013-03-19 10:33:00,22.7,13.7,30.19,NW,306,9.0,11.0,68,0.00,,,0.00,561,Wunderground v.1.15,2013-03-19 15:33:00,
2013-03-19 10:35:00,22.8,14.1,30.19,NW,325,9.0,11.0,69,0.00,,,0.00,564,Wunderground v.1.15,2013-03-19 15:35:00,
2013-03-19 10:38:00,22.8,14.5,30.19,NW,304,7.0,11.0,70,0.00,,,0.00,575,Wunderground v.1.15,2013-03-19 15:38:00,
2013-03-19 10:40:00,22.9,14.6,30.19,NW,319,8.0,9.0,70,0.00,,,0.00,580,Wunderground v.1.15,2013-03-19 15:40:00,
2013-03-19 10:42:00,23.0,15.0,30.19,NW,316,8.0,9.0,71,0.00,,,0.00,587,Wunderground v.1.15,2013-03-19 15:42:00,
2013-03-19 10:43:00,23.0,15.0,30.19,NW,319,9.0,10.0,71,0.00,,,0.00,591,Wunderground v.1.15,2013-03-19 15:43:00,
2013-03-19 10:46:00,23.0,14.7,30.19,WNW,292,7.0,10.0,70,0.00,,,0.00,598,Wunderground v.1.15,2013-03-19 15:46:00,
2013-03-19 10:48:00,23.3,15.6,30.19,NW,324,8.0,11.0,72,0.00,,,0.00,603,Wunderground v.1.15,2013-03-19 15:48:00,
2013-03-19 10:49:00,23.3,15.3,30.19,NW,320,9.0,11.0,71,0.00,,,0.00,606,Wunderground v.1.15,2013-03-19 15:49:00,
2013-03-19 10:51:00,23.2,15.2,30.19,NW,320,7.0,10.0,71,0.00,,,0.00,594,Wunderground v.1.15,2013-03-19 15:51:00,
2013-03-19 10:53:00,23.2,15.2,30.19,NW,316,8.0,10.0,71,0.00,,,0.00,606,Wunderground v.1.15,2013-03-19 15:53:00,
2013-03-19 10:55:00,23.2,15.2,30.19,NW,310,9.0,10.0,71,0.00,,,0.00,612,Wunderground v.1.15,2013-03-19 15:55:00,
2013-03-19 10:56:00,23.2,15.2,30.19,NW,317,11.0,11.0,71,0.00,,,0.00,612,Wunderground v.1.15,2013-03-19 15:56:00,
2013-03-19 10:59:00,23.4,15.7,30.19,NW,304,8.0,11.0,72,0.00,,,0.00,629,Wunderground v.1.15,2013-03-19 15:59:00,
2013-03-19 11:00:00,23.7,16.6,30.19,WNW,298,8.0,10.0,74,0.00,,,0.00,638,Wunderground v.1.15,2013-03-19 16:00:00,
2013-03-19 11:01:00,23.7,16.6,30.19,WNW,292,9.0,10.0,74,0.00,,,0.00,642,Wunderground v.1.15,2013-03-19 16:01:00,
2013-03-19 11:04:00,24.0,16.0,30.19,WNW,301,7.0,11.0,71,0.00,,,0.00,652,Wunderground v.1.15,2013-03-19 16:04:00,
2013-03-19 11:06:00,23.9,15.9,30.19,NW,309,9.0,11.0,71,0.00,,,0.00,642,Wunderground v.1.15,2013-03-19 16:06:00,
2013-03-19 11:07:00,23.9,15.9,30.19,NW,314,7.0,11.0,71,0.00,,,0.00,598,Wunderground v.1.15,2013-03-19 16:07:00,
2013-03-19 11:08:00,23.9,15.9,30.20,NW,319,7.0,11.0,71,0.00,,,0.00,598,Wunderground v.1.15,2013-03-19 16:08:00,
2013-03-19 11:12:00,24.2,17.4,30.20,WNW,302,8.0,12.0,75,0.00,,,0.00,652,Wunderground v.1.15,2013-03-19 16:12:00,
2013-03-19 11:13:00,24.1,16.4,30.19,NW,311,4.0,12.0,72,0.00,,,0.00,638,Wunderground v.1.15,2013-03-19 16:13:00,
2013-03-19 11:14:00,24.2,16.5,30.19,NW,311,6.0,12.0,72,0.00,,,0.00,638,Wunderground v.1.15,2013-03-19 16:14:00,
2013-03-19 11:17:00,24.1,16.7,30.20,NNW,327,7.0,12.0,73,0.00,,,0.00,656,Wunderground v.1.15,2013-03-19 16:17:00,
2013-03-19 11:18:00,24.1,16.7,30.20,NNW,327,4.0,12.0,73,0.00,,,0.00,628,Wunderground v.1.15,2013-03-19 16:18:00,
2013-03-19 11:19:00,24.3,17.2,30.20,NW,322,5.0,12.0,74,0.00,,,0.00,631,Wunderground v.1.15,2013-03-19 16:19:00,
2013-03-19 11:23:00,24.8,17.7,30.20,WNW,290,5.0,9.0,74,0.00,,,0.00,700,Wunderground v.1.15,2013-03-19 16:23:00,
2013-03-19 11:26:00,25.2,17.8,30.20,NW,304,7.0,10.0,73,0.00,,,0.00,684,Wunderground v.1.15,2013-03-19 16:26:00,
2013-03-19 11:27:00,25.2,17.1,30.19,WNW,287,9.0,10.0,71,0.00,,,0.00,677,Wunderground v.1.15,2013-03-19 16:27:00,
2013-03-19 11:30:00,25.1,17.0,30.19,WNW,283,7.0,10.0,71,0.00,,,0.00,687,Wunderground v.1.15,2013-03-19 16:30:00,
2013-03-19 11:31:00,24.9,16.5,30.19,WNW,300,7.0,10.0,70,0.00,,,0.00,703,Wunderground v.1.15,2013-03-19 16:31:00,
2013-03-19 11:32:00,24.9,17.1,30.20,WNW,288,9.0,10.0,72,0.00,,,0.00,703,Wunderground v.1.15,2013-03-19 16:32:00,
2013-03-19 11:35:00,24.7,16.0,30.20,NW,317,3.0,10.0,69,0.00,,,0.00,496,Wunderground v.1.15,2013-03-19 16:35:00,
2013-03-19 11:36:00,24.6,15.9,30.20,NW,317,0.0,10.0,69,0.00,,,0.00,526,Wunderground v.1.15,2013-03-19 16:36:00,
2013-03-19 11:37:00,24.4,15.3,30.20,WNW,288,7.0,10.0,68,0.00,,,0.00,731,Wunderground v.1.15,2013-03-19 16:37:00,
2013-03-19 11:38:00,24.5,16.4,30.20,WNW,297,7.0,10.0,71,0.00,,,0.00,731,Wunderground v.1.15,2013-03-19 16:38:00,
2013-03-19 11:40:00,24.9,16.2,30.20,WNW,288,6.0,10.0,69,0.00,,,0.00,729,Wunderground v.1.15,2013-03-19 16:40:00,
2013-03-19 11:41:00,24.9,16.5,30.19,WNW,288,6.0,6.0,70,0.00,,,0.00,729,Wunderground v.1.15,2013-03-19 16:41:00,
2013-03-19 11:43:00,25.1,17.3,30.19,West,275,5.0,7.0,72,0.00,,,0.00,693,Wunderground v.1.15,2013-03-19 16:43:00,
2013-03-19 11:44:00,25.1,17.0,30.19,West,279,3.0,7.0,71,0.00,,,0.00,643,Wunderground v.1.15,2013-03-19 16:44:00,
2013-03-19 11:47:00,25.3,17.2,30.19,WNW,282,7.0,10.0,71,0.00,,,0.00,659,Wunderground v.1.15,2013-03-19 16:47:00,
2013-03-19 11:48:00,25.3,17.2,30.20,WNW,284,6.0,10.0,71,0.00,,,0.00,592,Wunderground v.1.15,2013-03-19 16:48:00,
2013-03-19 11:49:00,25.4,17.3,30.20,WNW,289,7.0,10.0,71,0.00,,,0.00,745,Wunderground v.1.15,2013-03-19 16:49:00,
2013-03-19 11:52:00,25.4,17.3,30.20,NW,313,7.0,9.0,71,0.00,,,0.00,745,Wunderground v.1.15,2013-03-19 16:52:00,
2013-03-19 11:54:00,25.6,17.5,30.20,NW,306,6.0,9.0,71,0.00,,,0.00,751,Wunderground v.1.15,2013-03-19 16:54:00,
2013-03-19 11:57:00,25.9,17.8,30.20,NW,319,9.0,9.0,71,0.00,,,0.00,759,Wunderground v.1.15,2013-03-19 16:57:00,
2013-03-19 11:59:00,25.9,17.5,30.20,West,276,5.0,9.0,70,0.00,,,0.00,784,Wunderground v.1.15,2013-03-19 16:59:00,
2013-03-19 12:00:00,26.0,17.6,30.20,West,259,8.0,9.0,70,0.00,,,0.00,789,Wunderground v.1.15,2013-03-19 17:00:00,
2013-03-19 12:05:00,26.0,16.5,30.20,WNW,297,8.0,10.0,67,0.00,,,0.00,853,Wunderground v.1.15,2013-03-19 17:05:00,
2013-03-19 12:06:00,26.0,16.5,30.19,WNW,302,7.0,10.0,67,0.00,,,0.00,867,Wunderground v.1.15,2013-03-19 17:06:00,
2013-03-19 12:07:00,26.0,16.5,30.19,NW,321,5.0,10.0,67,0.00,,,0.00,840,Wunderground v.1.15,2013-03-19 17:07:00,
2013-03-19 12:11:00,26.0,16.9,30.19,NW,304,4.0,6.0,68,0.00,,,0.00,691,Wunderground v.1.15,2013-03-19 17:11:00,
2013-03-19 12:12:00,25.9,16.4,30.19,NW,309,5.0,6.0,67,0.00,,,0.00,691,Wunderground v.1.15,2013-03-19 17:12:00,
2013-03-19 12:13:00,25.8,16.7,30.19,WNW,287,6.0,6.0,68,0.00,,,0.00,403,Wunderground v.1.15,2013-03-19 17:13:00,
2013-03-19 12:14:00,25.8,16.7,30.19,WNW,290,7.0,7.0,68,0.00,,,0.00,403,Wunderground v.1.15,2013-03-19 17:14:00,
2013-03-19 12:17:00,25.7,16.3,30.19,WNW,287,5.0,8.0,67,0.00,,,0.00,717,Wunderground v.1.15,2013-03-19 17:17:00,
2013-03-19 12:18:00,25.8,16.3,30.19,NW,309,6.0,8.0,67,0.00,,,0.00,694,Wunderground v.1.15,2013-03-19 17:18:00,
2013-03-19 12:19:00,26.3,18.2,30.20,West,281,5.0,8.0,71,0.00,,,0.00,729,Wunderground v.1.15,2013-03-19 17:19:00,
2013-03-19 12:23:00,26.8,18.0,30.20,NW,309,6.0,7.0,69,0.00,,,0.00,605,Wunderground v.1.15,2013-03-19 17:23:00,
2013-03-19 12:24:00,26.7,17.9,30.20,NW,306,5.0,7.0,69,0.00,,,0.00,605,Wunderground v.1.15,2013-03-19 17:24:00,
2013-03-19 12:30:00,27.2,18.4,30.20,WNW,297,4.0,9.0,69,0.00,,,0.00,519,Wunderground v.1.15,2013-03-19 17:30:00,
2013-03-19 12:31:00,27.2,18.7,30.20,WNW,294,8.0,9.0,70,0.00,,,0.00,501,Wunderground v.1.15,2013-03-19 17:31:00,
2013-03-19 12:33:00,27.2,18.4,30.20,West,275,5.0,9.0,69,0.00,,,0.00,496,Wunderground v.1.15,2013-03-19 17:33:00,
2013-03-19 12:35:00,27.0,17.5,30.20,WNW,284,3.0,9.0,67,0.00,,,0.00,575,Wunderground v.1.15,2013-03-19 17:35:00,
2013-03-19 12:36:00,26.9,17.4,30.20,WNW,289,4.0,9.0,67,0.00,,,0.00,503,Wunderground v.1.15,2013-03-19 17:36:00,
2013-03-19 12:41:00,27.1,18.9,30.21,WNW,283,7.0,10.0,71,0.00,,,0.00,499,Wunderground v.1.15,2013-03-19 17:41:00,
2013-03-19 12:42:00,27.1,18.9,30.21,WSW,256,2.0,7.0,71,0.00,,,0.00,499,Wunderground v.1.15,2013-03-19 17:42:00,
2013-03-19 12:43:00,27.1,18.9,30.21,West,278,3.0,7.0,71,0.00,,,0.00,499,Wunderground v.1.15,2013-03-19 17:43:00,
2013-03-19 12:46:00,27.5,19.3,30.20,WNW,284,6.0,11.0,71,0.00,,,0.00,577,Wunderground v.1.15,2013-03-19 17:46:00,
2013-03-19 12:48:00,27.6,19.1,30.20,West,273,6.0,11.0,70,0.00,,,0.00,577,Wunderground v.1.15,2013-03-19 17:48:00,
2013-03-19 12:51:00,27.6,18.8,30.20,WSW,258,8.0,8.0,69,0.00,,,0.00,557,Wunderground v.1.15,2013-03-19 17:51:00,
2013-03-19 12:52:00,27.6,19.1,30.20,West,264,6.0,8.0,70,0.00,,,0.00,557,Wunderground v.1.15,2013-03-19 17:52:00,
2013-03-19 12:53:00,27.6,19.1,30.20,WNW,284,4.0,8.0,70,0.00,,,0.00,710,Wunderground v.1.15,2013-03-19 17:53:00,
2013-03-19 12:54:00,27.6,19.1,30.20,WNW,284,3.0,8.0,70,0.00,,,0.00,710,Wunderground v.1.15,2013-03-19 17:54:00,
2013-03-19 12:57:00,27.6,18.8,30.20,WNW,288,4.0,8.0,69,0.00,,,0.00,529,Wunderground v.1.15,2013-03-19 17:57:00,
2013-03-19 13:00:00,27.8,20.3,30.20,West,275,6.0,7.0,73,0.00,,,0.00,431,Wunderground v.1.15,2013-03-19 18:00:00,
2013-03-19 13:04:00,28.0,19.1,30.20,WNW,301,9.0,9.0,69,0.00,,,0.00,438,Wunderground v.1.15,2013-03-19 18:04:00,
2013-03-19 13:05:00,28.2,20.0,30.20,WNW,298,7.0,9.0,71,0.00,,,0.00,496,Wunderground v.1.15,2013-03-19 18:05:00,
2013-03-19 13:09:00,28.3,19.8,30.20,West,275,5.0,10.0,70,0.00,,,0.00,452,Wunderground v.1.15,2013-03-19 18:09:00,
2013-03-19 13:11:00,28.3,19.8,30.20,West,278,5.0,7.0,70,0.00,,,0.00,457,Wunderground v.1.15,2013-03-19 18:11:00,
2013-03-19 13:12:00,28.1,18.9,30.20,West,264,6.0,7.0,68,0.00,,,0.00,466,Wunderground v.1.15,2013-03-19 18:12:00,
2013-03-19 13:17:00,28.2,20.0,30.20,WNW,288,5.0,7.0,71,0.00,,,0.00,522,Wunderground v.1.15,2013-03-19 18:17:00,
2013-03-19 13:18:00,28.3,19.1,30.20,WNW,286,6.0,7.0,68,0.00,,,0.00,522,Wunderground v.1.15,2013-03-19 18:18:00,
2013-03-19 13:23:00,28.3,18.7,30.20,West,268,6.0,8.0,67,0.00,,,0.00,478,Wunderground v.1.15,2013-03-19 18:23:00,
2013-03-19 13:24:00,28.3,18.7,30.20,West,268,4.0,8.0,67,0.00,,,0.00,445,Wunderground v.1.15,2013-03-19 18:24:00,
2013-03-19 13:28:00,28.2,19.3,30.20,West,273,5.0,8.0,69,0.00,,,0.00,392,Wunderground v.1.15,2013-03-19 18:28:00,
2013-03-19 13:29:00,28.2,19.3,30.20,West,278,6.0,8.0,69,0.00,,,0.00,401,Wunderground v.1.15,2013-03-19 18:29:00,
2013-03-19 13:30:00,28.2,19.3,30.20,WNW,302,5.0,5.0,69,0.00,,,0.00,448,Wunderground v.1.15,2013-03-19 18:30:00,
2013-03-19 13:33:00,28.3,19.1,30.20,West,261,7.0,7.0,68,0.00,,,0.00,492,Wunderground v.1.15,2013-03-19 18:33:00,
2013-03-19 13:34:00,28.4,19.9,30.20,West,267,5.0,7.0,70,0.00,,,0.00,439,Wunderground v.1.15,2013-03-19 18:34:00,
2013-03-19 13:35:00,28.3,18.7,30.20,West,265,7.0,7.0,67,0.00,,,0.00,439,Wunderground v.1.15,2013-03-19 18:35:00,
2013-03-19 13:37:00,28.3,19.1,30.20,WNW,282,7.0,7.0,68,0.00,,,0.00,439,Wunderground v.1.15,2013-03-19 18:37:00,
2013-03-19 13:39:00,28.3,18.7,30.20,West,266,7.0,7.0,67,0.00,,,0.00,510,Wunderground v.1.15,2013-03-19 18:39:00,
2013-03-19 13:40:00,28.5,19.6,30.20,West,273,9.0,9.0,69,0.00,,,0.00,675,Wunderground v.1.15,2013-03-19 18:40:00,
2013-03-19 13:41:00,28.6,19.7,30.20,West,262,8.0,9.0,69,0.00,,,0.00,675,Wunderground v.1.15,2013-03-19 18:41:00,
2013-03-19 13:44:00,29.1,19.8,30.20,West,268,8.0,9.0,68,0.00,,,0.00,682,Wunderground v.1.15,2013-03-19 18:44:00,
2013-03-19 13:45:00,29.3,20.0,30.20,West,259,5.0,9.0,68,0.00,,,0.00,693,Wunderground v.1.15,2013-03-19 18:45:00,
2013-03-19 13:46:00,29.2,19.2,30.20,WSW,240,4.0,9.0,66,0.00,,,0.00,599,Wunderground v.1.15,2013-03-19 18:46:00,
2013-03-19 13:48:00,29.2,18.9,30.20,West,269,6.0,9.0,65,0.00,,,0.00,763,Wunderground v.1.15,2013-03-19 18:48:00,
2013-03-19 13:50:00,29.6,21.0,30.20,WNW,295,5.0,6.0,70,0.00,,,0.00,865,Wunderground v.1.15,2013-03-19 18:50:00,
2013-03-19 13:52:00,29.8,20.2,30.20,West,278,5.0,6.0,67,0.00,,,0.00,861,Wunderground v.1.15,2013-03-19 18:52:00,
2013-03-19 13:55:00,30.6,22.0,30.20,WNW,300,7.0,8.0,70,0.00,,,0.00,844,Wunderground v.1.15,2013-03-19 18:55:00,
2013-03-19 13:57:00,30.7,22.1,30.20,WNW,294,4.0,8.0,70,0.00,,,0.00,773,Wunderground v.1.15,2013-03-19 18:57:00,
2013-03-19 13:59:00,30.9,22.9,30.20,WNW,286,7.0,8.0,72,0.00,,,0.00,763,Wunderground v.1.15,2013-03-19 18:59:00,
2013-03-19 14:02:00,31.0,22.0,30.20,West,279,7.0,8.0,69,0.00,,,0.00,772,Wunderground v.1.15,2013-03-19 19:02:00,
2013-03-19 14:03:00,30.9,21.6,30.20,WNW,283,7.0,8.0,68,0.00,,,0.00,777,Wunderground v.1.15,2013-03-19 19:03:00,
2013-03-19 14:06:00,30.6,21.6,30.19,West,272,7.0,8.0,69,0.00,,,0.00,823,Wunderground v.1.15,2013-03-19 19:06:00,
2013-03-19 14:08:00,30.9,22.3,30.19,WNW,301,5.0,8.0,70,0.00,,,0.00,803,Wunderground v.1.15,2013-03-19 19:08:00,
2013-03-19 14:09:00,31.1,22.5,30.19,WNW,295,8.0,9.0,70,0.00,,,0.00,812,Wunderground v.1.15,2013-03-19 19:09:00,
2013-03-19 14:13:00,31.4,22.4,30.20,WNW,289,8.0,11.0,69,0.00,,,0.00,814,Wunderground v.1.15,2013-03-19 19:13:00,
2013-03-19 14:14:00,31.4,22.1,30.20,WNW,287,9.0,11.0,68,0.00,,,0.00,816,Wunderground v.1.15,2013-03-19 19:14:00,
2013-03-19 14:15:00,31.4,22.7,30.20,WNW,299,5.0,11.0,70,0.00,,,0.00,817,Wunderground v.1.15,2013-03-19 19:15:00,
2013-03-19 14:16:00,31.5,23.2,30.20,WNW,299,11.0,11.0,71,0.00,,,0.00,817,Wunderground v.1.15,2013-03-19 19:16:00,
2013-03-19 14:19:00,31.6,23.3,30.20,WNW,298,7.0,11.0,71,0.00,,,0.00,831,Wunderground v.1.15,2013-03-19 19:19:00,
2013-03-19 14:20:00,31.7,23.4,30.20,NW,313,7.0,8.0,71,0.00,,,0.00,838,Wunderground v.1.15,2013-03-19 19:20:00,
2013-03-19 14:21:00,31.6,22.9,30.20,NW,304,6.0,8.0,70,0.00,,,0.00,835,Wunderground v.1.15,2013-03-19 19:21:00,
2013-03-19 14:22:00,31.6,22.9,30.20,WNW,302,10.0,10.0,70,0.00,,,0.00,851,Wunderground v.1.15,2013-03-19 19:22:00,
2013-03-19 14:24:00,31.3,21.6,30.19,West,273,3.0,10.0,67,0.00,,,0.00,863,Wunderground v.1.15,2013-03-19 19:24:00,
2013-03-19 14:25:00,31.4,22.1,30.19,WNW,292,7.0,10.0,68,0.00,,,0.00,814,Wunderground v.1.15,2013-03-19 19:25:00,
2013-03-19 14:29:00,31.8,23.1,30.19,WNW,303,8.0,11.0,70,0.00,,,0.00,835,Wunderground v.1.15,2013-03-19 19:29:00,
2013-03-19 14:30:00,31.7,23.0,30.19,WNW,301,10.0,10.0,70,0.00,,,0.00,359,Wunderground v.1.15,2013-03-19 19:30:00,
2013-03-19 14:34:00,31.8,23.8,30.19,WNW,296,8.0,10.0,72,0.00,,,0.00,512,Wunderground v.1.15,2013-03-19 19:34:00,
2013-03-19 14:35:00,32.0,24.0,30.19,WNW,285,8.0,10.0,72,0.00,,,0.00,689,Wunderground v.1.15,2013-03-19 19:35:00,
2013-03-19 14:39:00,32.0,23.3,30.19,WNW,295,4.0,10.0,70,0.00,,,0.00,758,Wunderground v.1.15,2013-03-19 19:39:00,
2013-03-19 14:40:00,32.1,23.4,30.19,NW,312,8.0,8.0,70,0.00,,,0.00,788,Wunderground v.1.15,2013-03-19 19:40:00,
2013-03-19 14:41:00,32.2,23.5,30.19,NW,319,4.0,8.0,70,0.00,,,0.00,780,Wunderground v.1.15,2013-03-19 19:41:00,
2013-03-19 14:44:00,32.6,24.2,30.19,WNW,300,10.0,11.0,71,0.00,,,0.00,800,Wunderground v.1.15,2013-03-19 19:44:00,
2013-03-19 14:45:00,32.8,24.8,30.19,WNW,297,8.0,11.0,72,0.00,,,0.00,789,Wunderground v.1.15,2013-03-19 19:45:00,
2013-03-19 14:46:00,33.0,23.6,30.19,WNW,288,8.0,11.0,68,0.00,,,0.00,786,Wunderground v.1.15,2013-03-19 19:46:00,
2013-03-19 14:48:00,33.0,23.2,30.19,WNW,299,7.0,11.0,67,0.00,,,0.00,812,Wunderground v.1.15,2013-03-19 19:48:00,
2013-03-19 14:50:00,33.1,23.7,30.19,NW,304,7.0,11.0,68,0.00,,,0.00,851,Wunderground v.1.15,2013-03-19 19:50:00,
2013-03-19 14:51:00,33.1,23.3,30.19,WNW,294,7.0,8.0,67,0.00,,,0.00,401,Wunderground v.1.15,2013-03-19 19:51:00,
2013-03-19 14:53:00,32.9,23.1,30.19,WNW,292,5.0,8.0,67,0.00,,,0.00,919,Wunderground v.1.15,2013-03-19 19:53:00,
2013-03-19 14:55:00,33.1,24.4,30.19,WNW,287,5.0,8.0,70,0.00,,,0.00,687,Wunderground v.1.15,2013-03-19 19:55:00,
2013-03-19 14:57:00,33.2,22.7,30.19,West,278,5.0,8.0,65,0.00,,,0.00,687,Wunderground v.1.15,2013-03-19 19:57:00,
2013-03-19 14:59:00,33.1,23.7,30.19,North,5,6.0,8.0,68,0.00,,,0.00,775,Wunderground v.1.15,2013-03-19 19:59:00,
2013-03-19 15:00:00,33.3,24.9,30.19,WNW,294,9.0,9.0,71,0.00,,,0.00,775,Wunderground v.1.15,2013-03-19 20:00:00,
2013-03-19 15:03:00,33.1,23.7,30.19,West,277,3.0,7.0,68,0.00,,,0.00,594,Wunderground v.1.15,2013-03-19 20:03:00,
2013-03-19 15:05:00,33.2,24.8,30.19,WNW,298,10.0,10.0,71,0.00,,,0.00,441,Wunderground v.1.15,2013-03-19 20:05:00,
2013-03-19 15:06:00,33.3,24.9,30.19,WNW,288,10.0,12.0,71,0.00,,,0.00,441,Wunderground v.1.15,2013-03-19 20:06:00,
2013-03-19 15:09:00,33.4,24.7,30.19,NW,309,5.0,12.0,70,0.00,,,0.00,652,Wunderground v.1.15,2013-03-19 20:09:00,
2013-03-19 15:10:00,33.4,24.0,30.19,West,274,4.0,6.0,68,0.00,,,0.00,538,Wunderground v.1.15,2013-03-19 20:10:00,
2013-03-19 15:11:00,33.4,24.0,30.19,West,264,5.0,6.0,68,0.00,,,0.00,520,Wunderground v.1.15,2013-03-19 20:11:00,
2013-03-19 15:12:00,33.4,24.0,30.19,West,264,5.0,6.0,68,0.00,,,0.00,520,Wunderground v.1.15,2013-03-19 20:12:00,
2013-03-19 15:17:00,34.1,25.7,30.18,NW,305,7.0,10.0,71,0.00,,,0.00,577,Wunderground v.1.15,2013-03-19 20:17:00,
2013-03-19 15:18:00,34.2,25.1,30.18,West,273,7.0,10.0,69,0.00,,,0.00,577,Wunderground v.1.15,2013-03-19 20:18:00,
2013-03-19 15:20:00,34.3,24.1,30.18,West,259,5.0,10.0,66,0.00,,,0.00,515,Wunderground v.1.15,2013-03-19 20:20:00,
2013-03-19 15:23:00,34.8,25.3,30.18,West,261,7.0,9.0,68,0.00,,,0.00,515,Wunderground v.1.15,2013-03-19 20:23:00,
2013-03-19 15:24:00,34.9,23.6,30.17,West,263,7.0,9.0,63,0.00,,,0.00,649,Wunderground v.1.15,2013-03-19 20:24:00,
2013-03-19 15:25:00,35.0,23.3,30.18,West,274,8.0,9.0,62,0.00,,,0.00,555,Wunderground v.1.15,2013-03-19 20:25:00,
2013-03-19 15:26:00,35.0,23.3,30.18,West,281,7.0,9.0,62,0.00,,,0.00,555,Wunderground v.1.15,2013-03-19 20:26:00,
2013-03-19 15:28:00,35.3,25.1,30.18,West,278,7.0,9.0,66,0.00,,,0.00,691,Wunderground v.1.15,2013-03-19 20:28:00,
2013-03-19 15:29:00,35.4,25.2,30.18,WNW,290,5.0,9.0,66,0.00,,,0.00,691,Wunderground v.1.15,2013-03-19 20:29:00,
2013-03-19 15:31:00,35.6,24.2,30.18,WNW,289,10.0,10.0,63,0.00,,,0.00,550,Wunderground v.1.15,2013-03-19 20:31:00,
2013-03-19 15:32:00,35.6,24.2,30.18,WNW,282,7.0,11.0,63,0.00,,,0.00,512,Wunderground v.1.15,2013-03-19 20:32:00,
2013-03-19 15:34:00,35.2,23.9,30.17,WNW,283,8.0,11.0,63,0.00,,,0.00,698,Wunderground v.1.15,2013-03-19 20:34:00,
2013-03-19 15:36:00,35.1,23.8,30.17,WNW,300,9.0,11.0,63,0.00,,,0.00,698,Wunderground v.1.15,2013-03-19 20:36:00,
2013-03-19 15:37:00,35.0,23.7,30.17,West,279,7.0,11.0,63,0.00,,,0.00,780,Wunderground v.1.15,2013-03-19 20:37:00,
2013-03-19 15:38:00,35.0,23.7,30.17,West,268,6.0,11.0,63,0.00,,,0.00,761,Wunderground v.1.15,2013-03-19 20:38:00,
2013-03-19 15:39:00,35.1,23.8,30.17,West,275,7.0,11.0,63,0.00,,,0.00,670,Wunderground v.1.15,2013-03-19 20:39:00,
2013-03-19 15:42:00,35.5,24.5,30.17,WNW,288,8.0,9.0,64,0.00,,,0.00,615,Wunderground v.1.15,2013-03-19 20:42:00,
2013-03-19 15:43:00,35.5,24.5,30.17,WNW,286,7.0,9.0,64,0.00,,,0.00,615,Wunderground v.1.15,2013-03-19 20:43:00,
2013-03-19 15:44:00,35.2,21.9,30.17,WNW,288,10.0,11.0,58,0.00,,,0.00,330,Wunderground v.1.15,2013-03-19 20:44:00,
2013-03-19 15:46:00,35.1,22.2,30.17,WNW,284,7.0,11.0,59,0.00,,,0.00,330,Wunderground v.1.15,2013-03-19 20:46:00,
2013-03-19 15:47:00,35.2,23.9,30.17,West,269,8.0,11.0,63,0.00,,,0.00,330,Wunderground v.1.15,2013-03-19 20:47:00,
2013-03-19 15:49:00,35.1,21.8,30.17,West,275,6.0,11.0,58,0.00,,,0.00,664,Wunderground v.1.15,2013-03-19 20:49:00,
2013-03-19 15:51:00,35.0,22.5,30.17,WNW,292,6.0,9.0,60,0.00,,,0.00,659,Wunderground v.1.15,2013-03-19 20:51:00,
2013-03-19 15:53:00,35.2,23.1,30.17,West,277,5.0,9.0,61,0.00,,,0.00,649,Wunderground v.1.15,2013-03-19 20:53:00,
2013-03-19 15:54:00,35.2,23.5,30.17,WNW,283,4.0,9.0,62,0.00,,,0.00,643,Wunderground v.1.15,2013-03-19 20:54:00,
2013-03-19 15:57:00,35.4,24.4,30.17,WNW,298,5.0,9.0,64,0.00,,,0.00,635,Wunderground v.1.15,2013-03-19 20:57:00,
2013-03-19 16:00:00,35.5,23.8,30.17,WNW,299,10.0,10.0,62,0.00,,,0.00,628,Wunderground v.1.15,2013-03-19 21:00:00,
2013-03-19 16:01:00,35.6,24.6,30.17,WNW,290,7.0,8.0,64,0.00,,,0.00,628,Wunderground v.1.15,2013-03-19 21:01:00,
2013-03-19 16:03:00,35.7,23.9,30.17,WNW,298,4.0,8.0,62,0.00,,,0.00,621,Wunderground v.1.15,2013-03-19 21:03:00,
2013-03-19 16:05:00,35.8,23.3,30.17,WNW,296,6.0,9.0,60,0.00,,,0.00,617,Wunderground v.1.15,2013-03-19 21:05:00,
2013-03-19 16:06:00,35.7,22.4,30.17,WNW,294,4.0,9.0,58,0.00,,,0.00,613,Wunderground v.1.15,2013-03-19 21:06:00,
2013-03-19 16:07:00,35.6,23.1,30.17,WNW,288,10.0,10.0,60,0.00,,,0.00,612,Wunderground v.1.15,2013-03-19 21:07:00,
2013-03-19 16:10:00,36.0,25.4,30.17,NW,312,7.0,7.0,65,0.00,,,0.00,601,Wunderground v.1.15,2013-03-19 21:10:00,
2013-03-19 16:11:00,36.2,24.4,30.17,WNW,297,5.0,8.0,62,0.00,,,0.00,599,Wunderground v.1.15,2013-03-19 21:11:00,
2013-03-19 16:13:00,36.1,23.1,30.17,WNW,284,4.0,8.0,59,0.00,,,0.00,594,Wunderground v.1.15,2013-03-19 21:13:00,
2013-03-19 16:16:00,36.2,24.8,30.17,WNW,291,6.0,8.0,63,0.00,,,0.00,589,Wunderground v.1.15,2013-03-19 21:16:00,
2013-03-19 16:17:00,36.2,25.2,30.17,WNW,285,6.0,8.0,64,0.00,,,0.00,589,Wunderground v.1.15,2013-03-19 21:17:00,
2013-03-19 16:18:00,36.4,25.7,30.17,WNW,290,8.0,9.0,65,0.00,,,0.00,584,Wunderground v.1.15,2013-03-19 21:18:00,
2013-03-19 16:22:00,36.4,24.6,30.17,WNW,287,5.0,8.0,62,0.00,,,0.00,568,Wunderground v.1.15,2013-03-19 21:22:00,
2013-03-19 16:23:00,36.4,24.6,30.17,WNW,300,9.0,9.0,62,0.00,,,0.00,568,Wunderground v.1.15,2013-03-19 21:23:00,
2013-03-19 16:26:00,36.3,24.5,30.17,WNW,294,9.0,11.0,62,0.00,,,0.00,564,Wunderground v.1.15,2013-03-19 21:26:00,
2013-03-19 16:27:00,36.2,23.6,30.17,WNW,297,4.0,11.0,60,0.00,,,0.00,557,Wunderground v.1.15,2013-03-19 21:27:00,
2013-03-19 16:28:00,36.1,23.5,30.17,NW,316,8.0,11.0,60,0.00,,,0.00,557,Wunderground v.1.15,2013-03-19 21:28:00,
2013-03-19 16:29:00,36.1,23.9,30.17,NW,306,5.0,11.0,61,0.00,,,0.00,552,Wunderground v.1.15,2013-03-19 21:29:00,
2013-03-19 16:32:00,36.0,23.8,30.17,NW,319,5.0,8.0,61,0.00,,,0.00,543,Wunderground v.1.15,2013-03-19 21:32:00,
2013-03-19 16:33:00,36.0,23.4,30.17,NW,313,7.0,8.0,60,0.00,,,0.00,538,Wunderground v.1.15,2013-03-19 21:33:00,
2013-03-19 16:34:00,36.0,23.8,30.17,NW,313,5.0,8.0,61,0.00,,,0.00,538,Wunderground v.1.15,2013-03-19 21:34:00,
2013-03-19 16:38:00,36.3,25.3,30.17,WNW,296,10.0,10.0,64,0.00,,,0.00,524,Wunderground v.1.15,2013-03-19 21:38:00,
2013-03-19 16:39:00,36.4,25.0,30.17,West,272,7.0,10.0,63,0.00,,,0.00,520,Wunderground v.1.15,2013-03-19 21:39:00,
2013-03-19 16:40:00,36.4,25.4,30.17,West,281,7.0,10.0,64,0.00,,,0.00,517,Wunderground v.1.15,2013-03-19 21:40:00,
2013-03-19 16:45:00,36.5,25.5,30.18,WNW,297,7.0,13.0,64,0.00,,,0.00,504,Wunderground v.1.15,2013-03-19 21:45:00,
2013-03-19 16:47:00,36.6,26.3,30.18,NW,323,4.0,13.0,66,0.00,,,0.00,496,Wunderground v.1.15,2013-03-19 21:47:00,
2013-03-19 16:50:00,36.5,25.8,30.17,WNW,298,7.0,8.0,65,0.00,,,0.00,489,Wunderground v.1.15,2013-03-19 21:50:00,
2013-03-19 16:53:00,36.4,25.0,30.17,WNW,302,7.0,10.0,63,0.00,,,0.00,478,Wunderground v.1.15,2013-03-19 21:53:00,
2013-03-19 16:54:00,36.4,25.4,30.17,NW,315,7.0,10.0,64,0.00,,,0.00,480,Wunderground v.1.15,2013-03-19 21:54:00,
2013-03-19 16:55:00,36.5,25.8,30.17,NW,304,8.0,11.0,65,0.00,,,0.00,471,Wunderground v.1.15,2013-03-19 21:55:00,
2013-03-19 16:58:00,36.4,24.6,30.17,WNW,289,6.0,11.0,62,0.00,,,0.00,462,Wunderground v.1.15,2013-03-19 21:58:00,
2013-03-19 16:59:00,36.4,26.1,30.17,NW,323,6.0,11.0,66,0.00,,,0.00,457,Wunderground v.1.15,2013-03-19 21:59:00,
2013-03-19 17:01:00,36.4,25.0,30.17,NW,310,7.0,7.0,63,0.00,,,0.00,452,Wunderground v.1.15,2013-03-19 22:01:00,
2013-03-19 17:02:00,36.4,25.7,30.17,NW,319,7.0,8.0,65,0.00,,,0.00,452,Wunderground v.1.15,2013-03-19 22:02:00,
2013-03-19 17:05:00,36.5,26.2,30.17,WNW,298,4.0,8.0,66,0.00,,,0.00,441,Wunderground v.1.15,2013-03-19 22:05:00,
2013-03-19 17:06:00,36.5,25.5,30.17,NW,313,8.0,9.0,64,0.00,,,0.00,436,Wunderground v.1.15,2013-03-19 22:06:00,
2013-03-19 17:07:00,36.6,26.7,30.17,NW,317,7.0,9.0,67,0.00,,,0.00,434,Wunderground v.1.15,2013-03-19 22:07:00,
2013-03-19 17:10:00,36.4,25.7,30.17,NW,319,5.0,9.0,65,0.00,,,0.00,422,Wunderground v.1.15,2013-03-19 22:10:00,
2013-03-19 17:13:00,36.2,24.0,30.17,NW,315,5.0,6.0,61,0.00,,,0.00,420,Wunderground v.1.15,2013-03-19 22:13:00,
2013-03-19 17:14:00,36.3,26.0,30.17,NW,313,7.0,9.0,66,0.00,,,0.00,413,Wunderground v.1.15,2013-03-19 22:14:00,
2013-03-19 17:17:00,36.4,25.7,30.17,NW,305,6.0,9.0,65,0.00,,,0.00,401,Wunderground v.1.15,2013-03-19 22:17:00,
2013-03-19 17:18:00,36.4,25.0,30.17,NW,306,5.0,9.0,63,0.00,,,0.00,399,Wunderground v.1.15,2013-03-19 22:18:00,
2013-03-19 17:20:00,36.4,25.7,30.17,NW,312,3.0,9.0,65,0.00,,,0.00,396,Wunderground v.1.15,2013-03-19 22:20:00,
2013-03-19 17:22:00,36.5,25.8,30.17,NW,319,5.0,6.0,65,0.00,,,0.00,385,Wunderground v.1.15,2013-03-19 22:22:00,
2013-03-19 17:23:00,36.4,26.5,30.17,NW,311,5.0,6.0,67,0.00,,,0.00,383,Wunderground v.1.15,2013-03-19 22:23:00,
2013-03-19 17:24:00,36.3,25.3,30.16,NW,313,6.0,6.0,64,0.00,,,0.00,380,Wunderground v.1.15,2013-03-19 22:24:00,
2013-03-19 17:25:00,36.3,25.7,30.17,NW,306,7.0,9.0,65,0.00,,,0.00,374,Wunderground v.1.15,2013-03-19 22:25:00,
2013-03-19 17:27:00,36.4,26.1,30.16,NW,320,4.0,9.0,66,0.00,,,0.00,369,Wunderground v.1.15,2013-03-19 22:27:00,
2013-03-19 17:29:00,36.2,25.2,30.16,NW,321,5.0,9.0,64,0.00,,,0.00,364,Wunderground v.1.15,2013-03-19 22:29:00,
2013-03-19 17:32:00,36.3,26.0,30.16,NW,323,6.0,6.0,66,0.00,,,0.00,355,Wunderground v.1.15,2013-03-19 22:32:00,
2013-03-19 17:34:00,36.4,26.5,30.16,NNW,337,3.0,8.0,67,0.00,,,0.00,346,Wunderground v.1.15,2013-03-19 22:34:00,
2013-03-19 17:36:00,36.5,26.2,30.16,NW,320,4.0,8.0,66,0.00,,,0.00,339,Wunderground v.1.15,2013-03-19 22:36:00,
2013-03-19 17:37:00,36.4,25.7,30.16,NNW,339,4.0,8.0,65,0.00,,,0.00,338,Wunderground v.1.15,2013-03-19 22:37:00,
2013-03-19 17:38:00,36.4,26.1,30.16,NW,316,5.0,8.0,66,0.00,,,0.00,330,Wunderground v.1.15,2013-03-19 22:38:00,
2013-03-19 17:39:00,36.4,25.7,30.17,NW,313,6.0,8.0,65,0.00,,,0.00,329,Wunderground v.1.15,2013-03-19 22:39:00,
2013-03-19 17:41:00,36.3,25.7,30.16,NW,316,7.0,7.0,65,0.00,,,0.00,320,Wunderground v.1.15,2013-03-19 22:41:00,
2013-03-19 17:43:00,36.3,26.7,30.16,NW,305,8.0,10.0,68,0.00,,,0.00,313,Wunderground v.1.15,2013-03-19 22:43:00,
2013-03-19 17:44:00,36.3,26.4,30.16,NW,317,8.0,10.0,67,0.00,,,0.00,313,Wunderground v.1.15,2013-03-19 22:44:00,
2013-03-19 17:46:00,36.2,25.9,30.16,NW,307,9.0,10.0,66,0.00,,,0.00,306,Wunderground v.1.15,2013-03-19 22:46:00,
2013-03-19 17:47:00,36.2,25.9,30.16,NW,311,7.0,10.0,66,0.00,,,0.00,304,Wunderground v.1.15,2013-03-19 22:47:00,
2013-03-19 17:48:00,36.1,26.2,30.16,NW,306,7.0,10.0,67,0.00,,,0.00,297,Wunderground v.1.15,2013-03-19 22:48:00,
2013-03-19 17:49:00,36.2,26.3,30.16,NW,322,5.0,10.0,67,0.00,,,0.00,297,Wunderground v.1.15,2013-03-19 22:49:00,
2013-03-19 17:51:00,36.2,26.3,30.17,NW,320,8.0,8.0,67,0.00,,,0.00,288,Wunderground v.1.15,2013-03-19 22:51:00,
2013-03-19 17:55:00,36.1,25.1,30.16,NNW,333,5.0,8.0,64,0.00,,,0.00,274,Wunderground v.1.15,2013-03-19 22:55:00,
2013-03-19 17:56:00,36.2,25.6,30.17,NW,320,6.0,8.0,65,0.00,,,0.00,269,Wunderground v.1.15,2013-03-19 22:56:00,
2013-03-19 18:02:00,36.1,25.8,30.17,NW,324,2.0,8.0,66,0.00,,,0.00,244,Wunderground v.1.15,2013-03-19 23:02:00,
2013-03-19 18:03:00,36.1,25.8,30.17,NNW,332,3.0,8.0,66,0.00,,,0.00,241,Wunderground v.1.15,2013-03-19 23:03:00,
2013-03-19 18:05:00,36.1,25.8,30.17,NNW,347,3.0,8.0,66,0.00,,,0.00,234,Wunderground v.1.15,2013-03-19 23:05:00,
2013-03-19 18:07:00,36.1,26.2,30.17,NW,315,6.0,8.0,67,0.00,,,0.00,221,Wunderground v.1.15,2013-03-19 23:07:00,
2013-03-19 18:09:00,36.1,26.6,30.17,NNW,333,0.0,8.0,68,0.00,,,0.00,216,Wunderground v.1.15,2013-03-19 23:09:00,
2013-03-19 18:10:00,36.1,26.2,30.17,NNW,331,2.0,4.0,67,0.00,,,0.00,213,Wunderground v.1.15,2013-03-19 23:10:00,
2013-03-19 18:14:00,36.1,24.7,30.17,NNE,13,1.0,4.0,63,0.00,,,0.00,195,Wunderground v.1.15,2013-03-19 23:14:00,
2013-03-19 18:15:00,36.1,24.7,30.17,North,11,2.0,4.0,63,0.00,,,0.00,190,Wunderground v.1.15,2013-03-19 23:15:00,
2013-03-19 18:16:00,36.1,25.5,30.17,NNW,334,2.0,4.0,65,0.00,,,0.00,186,Wunderground v.1.15,2013-03-19 23:16:00,
2013-03-19 18:18:00,36.1,26.2,30.17,NW,309,6.0,7.0,67,0.00,,,0.00,174,Wunderground v.1.15,2013-03-19 23:18:00,
2013-03-19 18:20:00,35.9,26.0,30.17,NW,319,3.0,4.0,67,0.00,,,0.00,169,Wunderground v.1.15,2013-03-19 23:20:00,
2013-03-19 18:23:00,35.7,25.8,30.17,NNW,327,1.0,4.0,67,0.00,,,0.00,153,Wunderground v.1.15,2013-03-19 23:23:00,
2013-03-19 18:25:00,35.8,25.5,30.17,NNW,333,3.0,4.0,66,0.00,,,0.00,146,Wunderground v.1.15,2013-03-19 23:25:00,
2013-03-19 18:29:00,35.8,26.3,30.17,NNW,340,3.0,5.0,68,0.00,,,0.00,134,Wunderground v.1.15,2013-03-19 23:29:00,
2013-03-19 18:32:00,35.8,25.5,30.17,NNW,334,1.0,4.0,66,0.00,,,0.00,121,Wunderground v.1.15,2013-03-19 23:32:00,
2013-03-19 18:34:00,35.7,25.4,30.17,NNW,346,3.0,4.0,66,0.00,,,0.00,111,Wunderground v.1.15,2013-03-19 23:34:00,
2013-03-19 18:35:00,35.7,25.4,30.16,NNW,331,0.0,4.0,66,0.00,,,0.00,107,Wunderground v.1.15,2013-03-19 23:35:00,
2013-03-19 18:36:00,35.7,25.1,30.16,NNW,331,2.0,4.0,65,0.00,,,0.00,107,Wunderground v.1.15,2013-03-19 23:36:00,
2013-03-19 18:37:00,35.7,26.2,30.17,NNW,338,2.0,4.0,68,0.00,,,0.00,102,Wunderground v.1.15,2013-03-19 23:37:00,
2013-03-19 18:39:00,35.6,25.4,30.16,North,350,3.0,4.0,66,0.00,,,0.00,95,Wunderground v.1.15,2013-03-19 23:39:00,
2013-03-19 18:41:00,35.6,25.4,30.16,NNE,13,2.0,3.0,66,0.00,,,0.00,91,Wunderground v.1.15,2013-03-19 23:41:00,
2013-03-19 18:42:00,35.5,25.3,30.16,North,349,2.0,3.0,66,0.00,,,0.00,84,Wunderground v.1.15,2013-03-19 23:42:00,
2013-03-19 18:44:00,35.5,25.3,30.16,NNE,14,3.0,4.0,66,0.00,,,0.00,79,Wunderground v.1.15,2013-03-19 23:44:00,
2013-03-19 18:47:00,35.5,24.1,30.16,NNE,28,3.0,4.0,63,0.00,,,0.00,72,Wunderground v.1.15,2013-03-19 23:47:00,
2013-03-19 18:48:00,35.5,24.1,30.16,NNE,12,1.0,4.0,63,0.00,,,0.00,65,Wunderground v.1.15,2013-03-19 23:48:00,
2013-03-19 18:49:00,35.6,24.2,30.17,North,9,4.0,4.0,63,0.00,,,0.00,63,Wunderground v.1.15,2013-03-19 23:49:00,
2013-03-19 18:50:00,35.6,24.6,30.16,NNE,12,0.0,2.0,64,0.00,,,0.00,62,Wunderground v.1.15,2013-03-19 23:50:00,
2013-03-19 18:52:00,35.5,24.1,30.16,NNE,18,3.0,3.0,63,0.00,,,0.00,56,Wunderground v.1.15,2013-03-19 23:52:00,
2013-03-19 18:53:00,35.5,24.1,30.16,NNE,20,1.0,3.0,63,0.00,,,0.00,53,Wunderground v.1.15,2013-03-19 23:53:00,
2013-03-19 18:57:00,35.2,24.6,30.17,North,355,1.0,3.0,65,0.00,,,0.00,44,Wunderground v.1.15,2013-03-19 23:57:00,
2013-03-19 19:00:00,35.0,24.4,30.17,North,355,3.0,3.0,65,0.00,,,0.00,35,Wunderground v.1.15,2013-03-20 00:00:00,
2013-03-19 19:02:00,34.8,24.6,30.17,NNE,16,1.0,4.0,66,0.00,,,0.00,32,Wunderground v.1.15,2013-03-20 00:02:00,
2013-03-19 19:03:00,34.7,24.5,30.17,NNE,16,0.0,4.0,66,0.00,,,0.00,30,Wunderground v.1.15,2013-03-20 00:03:00,
2013-03-19 19:05:00,34.7,24.5,30.17,NNE,16,0.0,4.0,66,0.00,,,0.00,26,Wunderground v.1.15,2013-03-20 00:05:00,
2013-03-19 19:06:00,34.6,24.4,30.17,NNE,17,5.0,5.0,66,0.00,,,0.00,25,Wunderground v.1.15,2013-03-20 00:06:00,
2013-03-19 19:08:00,34.6,24.4,30.17,NNE,17,2.0,5.0,66,0.00,,,0.00,21,Wunderground v.1.15,2013-03-20 00:08:00,
2013-03-19 19:10:00,34.5,24.3,30.17,NNE,15,1.0,2.0,66,0.00,,,0.00,18,Wunderground v.1.15,2013-03-20 00:10:00,
2013-03-19 19:12:00,34.4,24.2,30.17,NNE,18,1.0,4.0,66,0.00,,,0.00,16,Wunderground v.1.15,2013-03-20 00:12:00,
2013-03-19 19:13:00,34.4,24.2,30.17,NNE,20,0.0,4.0,66,0.00,,,0.00,16,Wunderground v.1.15,2013-03-20 00:13:00,
2013-03-19 19:17:00,33.9,24.1,30.17,NE,39,4.0,5.0,67,0.00,,,0.00,12,Wunderground v.1.15,2013-03-20 00:17:00,
2013-03-19 19:18:00,33.8,24.0,30.17,NNE,20,5.0,5.0,67,0.00,,,0.00,12,Wunderground v.1.15,2013-03-20 00:18:00,
2013-03-19 19:19:00,33.8,23.6,30.17,NNE,30,6.0,6.0,66,0.00,,,0.00,12,Wunderground v.1.15,2013-03-20 00:19:00,
2013-03-19 19:20:00,33.8,23.6,30.17,NNE,17,4.0,4.0,66,0.00,,,0.00,12,Wunderground v.1.15,2013-03-20 00:20:00,
2013-03-19 19:24:00,33.4,23.6,30.17,NNE,26,2.0,5.0,67,0.00,,,0.00,9,Wunderground v.1.15,2013-03-20 00:24:00,
2013-03-19 19:25:00,33.3,23.5,30.17,NNE,26,3.0,5.0,67,0.00,,,0.00,9,Wunderground v.1.15,2013-03-20 00:25:00,
2013-03-19 19:26:00,33.2,23.4,30.17,NNE,26,1.0,5.0,67,0.00,,,0.00,7,Wunderground v.1.15,2013-03-20 00:26:00,
2013-03-19 19:29:00,32.9,23.5,30.18,NNE,15,1.0,5.0,68,0.00,,,0.00,5,Wunderground v.1.15,2013-03-20 00:29:00,
2013-03-19 19:30:00,32.8,23.4,30.18,NNE,13,3.0,3.0,68,0.00,,,0.00,5,Wunderground v.1.15,2013-03-20 00:30:00,
2013-03-19 19:32:00,32.7,23.3,30.18,NNE,14,3.0,3.0,68,0.00,,,0.00,0,Wunderground v.1.15,2013-03-20 00:32:00,
2013-03-19 19:34:00,32.6,23.2,30.18,NNE,14,2.0,3.0,68,0.00,,,0.00,0,Wunderground v.1.15,2013-03-20 00:34:00,
2013-03-19 19:36:00,32.5,23.1,30.18,North,5,2.0,6.0,68,0.00,,,0.00,0,Wunderground v.1.15,2013-03-20 00:36:00,
2013-03-19 19:39:00,32.3,23.6,30.18,NNW,327,1.0,6.0,70,0.00,,,0.00,0,Wunderground v.1.15,2013-03-20 00:39:00,
2013-03-19 19:41:00,32.3,23.6,30.18,North,360,3.0,3.0,70,0.00,,,0.00,0,Wunderground v.1.15,2013-03-20 00:41:00,
2013-03-19 19:44:00,32.1,24.1,30.18,NNW,334,2.0,5.0,72,0.00,,,0.00,0,Wunderground v.1.15,2013-03-20 00:44:00,
2013-03-19 19:45:00,32.1,24.1,30.18,NW,314,2.0,5.0,72,0.00,,,0.00,0,Wunderground v.1.15,2013-03-20 00:45:00,
2013-03-19 19:46:00,32.0,23.7,30.18,NW,314,0.0,5.0,71,0.00,,,0.00,0,Wunderground v.1.15,2013-03-20 00:46:00,
2013-03-19 19:50:00,31.7,23.4,30.18,North,11,3.0,4.0,71,0.00,,,0.00,0,Wunderground v.1.15,2013-03-20 00:50:00,
2013-03-19 19:51:00,31.7,23.4,30.18,NW,320,3.0,4.0,71,0.00,,,0.00,0,Wunderground v.1.15,2013-03-20 00:51:00,
2013-03-19 19:52:00,31.7,23.7,30.18,NNE,19,3.0,4.0,72,0.00,,,0.00,0,Wunderground v.1.15,2013-03-20 00:52:00,
2013-03-19 19:53:00,31.7,23.7,30.18,NNE,17,3.0,4.0,72,0.00,,,0.00,0,Wunderground v.1.15,2013-03-20 00:53:00,
2013-03-19 19:57:00,31.5,23.5,30.18,NNE,15,0.0,5.0,72,0.00,,,0.00,0,Wunderground v.1.15,2013-03-20 00:57:00,
2013-03-19 19:58:00,31.5,23.5,30.18,NNW,344,4.0,5.0,72,0.00,,,0.00,0,Wunderground v.1.15,2013-03-20 00:58:00,
2013-03-19 19:59:00,31.4,23.4,30.19,NNE,26,1.0,6.0,72,0.00,,,0.00,0,Wunderground v.1.15,2013-03-20 00:59:00,
2013-03-19 20:03:00,31.3,23.6,30.19,NNE,26,0.0,1.0,73,0.00,,,0.00,0,Wunderground v.1.15,2013-03-20 01:03:00,
2013-03-19 20:04:00,31.2,23.5,30.19,NNE,26,0.0,3.0,73,0.00,,,0.00,0,Wunderground v.1.15,2013-03-20 01:04:00,
2013-03-19 20:08:00,31.1,23.5,30.19,NNE,12,0.0,4.0,73,0.00,,,0.00,0,Wunderground v.1.15,2013-03-20 01:08:00,
2013-03-19 20:09:00,31.1,23.5,30.19,North,10,0.0,4.0,73,0.00,,,0.00,0,Wunderground v.1.15,2013-03-20 01:09:00,
2013-03-19 20:11:00,31.1,23.5,30.19,North,355,0.0,2.0,73,0.00,,,0.00,0,Wunderground v.1.15,2013-03-20 01:11:00,
2013-03-19 20:14:00,31.1,23.8,30.19,NNE,13,2.0,4.0,74,0.00,,,0.00,0,Wunderground v.1.15,2013-03-20 01:14:00,
2013-03-19 20:16:00,31.0,23.7,30.19,NNE,12,3.0,4.0,74,0.00,,,0.00,0,Wunderground v.1.15,2013-03-20 01:16:00,
2013-03-19 20:17:00,31.0,23.7,30.20,NNE,12,1.0,4.0,74,0.00,,,0.00,0,Wunderground v.1.15,2013-03-20 01:17:00,
2013-03-19 20:18:00,31.0,23.7,30.20,NNE,12,2.0,4.0,74,0.00,,,0.00,0,Wunderground v.1.15,2013-03-20 01:18:00,
2013-03-19 20:21:00,31.0,23.7,30.20,NNE,12,0.0,2.0,74,0.00,,,0.00,0,Wunderground v.1.15,2013-03-20 01:21:00,
2013-03-19 20:23:00,30.8,23.8,30.20,North,355,2.0,2.0,75,0.00,,,0.00,0,Wunderground v.1.15,2013-03-20 01:23:00,
2013-03-19 20:24:00,30.7,24.0,30.20,NNE,26,1.0,4.0,76,0.00,,,0.00,0,Wunderground v.1.15,2013-03-20 01:24:00,
2013-03-19 20:26:00,30.6,23.9,30.20,NNE,19,2.0,4.0,76,0.00,,,0.00,0,Wunderground v.1.15,2013-03-20 01:26:00,
2013-03-19 20:28:00,30.5,23.8,30.20,NNW,336,2.0,4.0,76,0.00,,,0.00,0,Wunderground v.1.15,2013-03-20 01:28:00,
2013-03-19 20:29:00,30.5,23.8,30.20,NNW,335,2.0,4.0,76,0.00,,,0.00,0,Wunderground v.1.15,2013-03-20 01:29:00,
2013-03-19 20:31:00,30.5,24.1,30.20,NNE,32,0.0,6.0,77,0.00,,,0.00,0,Wunderground v.1.15,2013-03-20 01:31:00,
2013-03-19 20:33:00,30.4,24.1,30.20,NNE,32,0.0,6.0,77,0.00,,,0.00,0,Wunderground v.1.15,2013-03-20 01:33:00,
2013-03-19 20:34:00,30.4,24.1,30.20,NNW,343,3.0,6.0,77,0.00,,,0.00,0,Wunderground v.1.15,2013-03-20 01:34:00,
2013-03-19 20:36:00,30.4,24.4,30.21,NNE,30,1.0,6.0,78,0.00,,,0.00,0,Wunderground v.1.15,2013-03-20 01:36:00,
2013-03-19 20:39:00,30.4,24.4,30.21,NE,36,4.0,6.0,78,0.00,,,0.00,0,Wunderground v.1.15,2013-03-20 01:39:00,
2013-03-19 20:40:00,30.4,24.4,30.21,NE,36,0.0,6.0,78,0.00,,,0.00,0,Wunderground v.1.15,2013-03-20 01:40:00,
2013-03-19 20:45:00,30.3,24.3,30.21,ENE,61,2.0,4.0,78,0.00,,,0.00,0,Wunderground v.1.15,2013-03-20 01:45:00,
2013-03-19 20:46:00,30.3,24.3,30.21,ENE,61,1.0,4.0,78,0.00,,,0.00,0,Wunderground v.1.15,2013-03-20 01:46:00,
2013-03-19 20:50:00,30.2,24.5,30.21,NW,324,4.0,4.0,79,0.00,,,0.00,0,Wunderground v.1.15,2013-03-20 01:50:00,
2013-03-19 20:51:00,30.2,24.2,30.21,NNW,327,5.0,5.0,78,0.00,,,0.00,0,Wunderground v.1.15,2013-03-20 01:51:00,
2013-03-19 20:52:00,30.2,24.5,30.21,WNW,302,5.0,5.0,79,0.00,,,0.00,0,Wunderground v.1.15,2013-03-20 01:52:00,
2013-03-19 20:53:00,30.2,24.5,30.21,North,350,2.0,5.0,79,0.00,,,0.00,0,Wunderground v.1.15,2013-03-20 01:53:00,
2013-03-19 20:56:00,30.1,24.4,30.21,NW,323,2.0,5.0,79,0.00,,,0.00,0,Wunderground v.1.15,2013-03-20 01:56:00,
2013-03-19 20:57:00,30.2,24.5,30.21,NNW,345,5.0,6.0,79,0.00,,,0.00,0,Wunderground v.1.15,2013-03-20 01:57:00,
2013-03-19 20:58:00,30.1,24.4,30.21,NW,313,6.0,6.0,79,0.00,,,0.00,0,Wunderground v.1.15,2013-03-20 01:58:00,
2013-03-19 21:02:00,30.1,24.7,30.21,NW,323,2.0,5.0,80,0.00,,,0.00,0,Wunderground v.1.15,2013-03-20 02:02:00,
2013-03-19 21:03:00,30.1,24.7,30.21,NNW,339,1.0,5.0,80,0.00,,,0.00,0,Wunderground v.1.15,2013-03-20 02:03:00,
2013-03-19 21:04:00,30.1,24.7,30.21,North,355,4.0,5.0,80,0.00,,,0.00,0,Wunderground v.1.15,2013-03-20 02:04:00,
2013-03-19 21:07:00,30.1,24.7,30.21,NNW,332,3.0,5.0,80,0.00,,,0.00,0,Wunderground v.1.15,2013-03-20 02:07:00,
2013-03-19 21:08:00,30.0,24.6,30.21,WNW,297,4.0,5.0,80,0.00,,,0.00,0,Wunderground v.1.15,2013-03-20 02:08:00,
2013-03-19 21:09:00,30.0,24.6,30.21,NNW,333,6.0,6.0,80,0.00,,,0.00,0,Wunderground v.1.15,2013-03-20 02:09:00,
2013-03-19 21:10:00,30.0,24.6,30.21,NNW,337,5.0,6.0,80,0.00,,,0.00,0,Wunderground v.1.15,2013-03-20 02:10:00,
2013-03-19 21:12:00,30.0,24.6,30.21,NW,315,4.0,7.0,80,0.00,,,0.00,0,Wunderground v.1.15,2013-03-20 02:12:00,
2013-03-19 21:15:00,30.0,24.6,30.21,NW,325,4.0,8.0,80,0.00,,,0.00,0,Wunderground v.1.15,2013-03-20 02:15:00,
2013-03-19 21:16:00,30.0,24.6,30.22,NW,326,4.0,8.0,80,0.00,,,0.00,0,Wunderground v.1.15,2013-03-20 02:16:00,
2013-03-19 21:18:00,29.9,24.5,30.21,NW,319,4.0,8.0,80,0.00,,,0.00,0,Wunderground v.1.15,2013-03-20 02:18:00,
2013-03-19 21:20:00,29.9,24.8,30.22,NW,325,6.0,8.0,81,0.00,,,0.00,0,Wunderground v.1.15,2013-03-20 02:20:00,
2013-03-19 21:21:00,29.8,24.7,30.22,NW,318,4.0,5.0,81,0.00,,,0.00,0,Wunderground v.1.15,2013-03-20 02:21:00,
2013-03-19 21:23:00,29.8,24.7,30.22,NW,324,4.0,6.0,81,0.00,,,0.00,0,Wunderground v.1.15,2013-03-20 02:23:00,
2013-03-19 21:24:00,29.8,24.7,30.22,NW,319,4.0,6.0,81,0.00,,,0.00,0,Wunderground v.1.15,2013-03-20 02:24:00,
2013-03-19 21:25:00,29.8,24.7,30.22,NNW,330,2.0,6.0,81,0.00,,,0.00,0,Wunderground v.1.15,2013-03-20 02:25:00,
2013-03-19 21:27:00,29.8,24.7,30.22,NW,313,6.0,7.0,81,0.00,,,0.00,0,Wunderground v.1.15,2013-03-20 02:27:00,
2013-03-19 21:30:00,29.9,24.8,30.22,NW,323,6.0,6.0,81,0.00,,,0.00,0,Wunderground v.1.15,2013-03-20 02:30:00,
2013-03-19 21:35:00,30.0,24.9,30.22,NW,315,5.0,8.0,81,0.00,,,0.00,0,Wunderground v.1.15,2013-03-20 02:35:00,
2013-03-19 21:36:00,30.0,24.9,30.22,NW,319,6.0,8.0,81,0.00,,,0.00,0,Wunderground v.1.15,2013-03-20 02:36:00,
2013-03-19 21:40:00,29.9,24.8,30.22,NW,320,6.0,9.0,81,0.00,,,0.00,0,Wunderground v.1.15,2013-03-20 02:40:00,
2013-03-19 21:41:00,29.9,25.1,30.23,NW,324,3.0,9.0,82,0.00,,,0.00,0,Wunderground v.1.15,2013-03-20 02:41:00,
2013-03-19 21:43:00,29.9,25.1,30.23,NW,323,4.0,9.0,82,0.00,,,0.00,0,Wunderground v.1.15,2013-03-20 02:43:00,
2013-03-19 21:46:00,29.8,25.0,30.23,NNW,331,3.0,9.0,82,0.00,,,0.00,0,Wunderground v.1.15,2013-03-20 02:46:00,
2013-03-19 21:47:00,29.8,25.0,30.23,NW,325,5.0,9.0,82,0.00,,,0.00,0,Wunderground v.1.15,2013-03-20 02:47:00,
2013-03-19 21:49:00,29.8,25.0,30.23,NW,321,8.0,9.0,82,0.00,,,0.00,0,Wunderground v.1.15,2013-03-20 02:49:00,
2013-03-19 21:50:00,29.8,25.0,30.23,NW,319,6.0,8.0,82,0.00,,,0.00,0,Wunderground v.1.15,2013-03-20 02:50:00,
2013-03-19 21:52:00,29.8,25.0,30.23,NW,318,6.0,8.0,82,0.00,,,0.00,0,Wunderground v.1.15,2013-03-20 02:52:00,
2013-03-19 21:55:00,29.8,25.0,30.23,NW,320,7.0,8.0,82,0.00,,,0.00,0,Wunderground v.1.15,2013-03-20 02:55:00,
2013-03-19 21:56:00,29.8,25.0,30.23,NW,324,6.0,10.0,82,0.00,,,0.00,0,Wunderground v.1.15,2013-03-20 02:56:00,
2013-03-19 21:58:00,29.8,25.0,30.23,NNW,329,6.0,10.0,82,0.00,,,0.00,0,Wunderground v.1.15,2013-03-20 02:58:00,
2013-03-19 22:01:00,29.7,24.9,30.23,NW,325,7.0,9.0,82,0.00,,,0.00,0,Wunderground v.1.15,2013-03-20 03:01:00,
2013-03-19 22:03:00,29.7,24.9,30.23,NW,321,9.0,9.0,82,0.00,,,0.00,0,Wunderground v.1.15,2013-03-20 03:03:00,
2013-03-19 22:04:00,29.7,24.9,30.23,NW,319,10.0,10.0,82,0.00,,,0.00,0,Wunderground v.1.15,2013-03-20 03:04:00,
2013-03-19 22:05:00,29.8,25.0,30.23,NW,317,7.0,10.0,82,0.00,,,0.00,0,Wunderground v.1.15,2013-03-20 03:05:00,
2013-03-19 22:07:00,29.8,25.0,30.23,NW,325,7.0,10.0,82,0.00,,,0.00,0,Wunderground v.1.15,2013-03-20 03:07:00,
2013-03-19 22:08:00,29.8,25.0,30.23,NNW,331,5.0,14.0,82,0.00,,,0.00,0,Wunderground v.1.15,2013-03-20 03:08:00,
2013-03-19 22:10:00,29.8,25.0,30.23,NNW,329,10.0,10.0,82,0.00,,,0.00,0,Wunderground v.1.15,2013-03-20 03:10:00,
2013-03-19 22:12:00,29.8,25.0,30.23,North,355,2.0,10.0,82,0.00,,,0.00,0,Wunderground v.1.15,2013-03-20 03:12:00,
2013-03-19 22:13:00,29.6,24.8,30.23,NNE,12,5.0,10.0,82,0.00,,,0.00,0,Wunderground v.1.15,2013-03-20 03:13:00,
2013-03-19 22:16:00,29.4,24.6,30.23,NE,43,4.0,10.0,82,0.00,,,0.00,0,Wunderground v.1.15,2013-03-20 03:16:00,
2013-03-19 22:17:00,29.3,24.5,30.23,NNW,332,2.0,10.0,82,0.00,,,0.00,0,Wunderground v.1.15,2013-03-20 03:17:00,
2013-03-19 22:18:00,29.3,24.5,30.23,NNW,340,4.0,10.0,82,0.00,,,0.00,0,Wunderground v.1.15,2013-03-20 03:18:00,
2013-03-19 22:19:00,29.2,24.4,30.23,NE,44,2.0,10.0,82,0.00,,,0.00,0,Wunderground v.1.15,2013-03-20 03:19:00,
2013-03-19 22:23:00,29.0,24.5,30.23,NE,52,2.0,10.0,83,0.00,,,0.00,0,Wunderground v.1.15,2013-03-20 03:23:00,
2013-03-19 22:24:00,28.9,24.1,30.23,NNW,335,6.0,10.0,82,0.00,,,0.00,0,Wunderground v.1.15,2013-03-20 03:24:00,
2013-03-19 22:26:00,28.7,24.2,30.24,NNE,14,7.0,10.0,83,0.00,,,0.00,0,Wunderground v.1.15,2013-03-20 03:26:00,
2013-03-19 22:28:00,28.5,24.0,30.24,North,349,1.0,10.0,83,0.00,,,0.00,0,Wunderground v.1.15,2013-03-20 03:28:00,
2013-03-19 22:31:00,28.3,24.1,30.24,North,360,6.0,6.0,84,0.00,,,0.00,0,Wunderground v.1.15,2013-03-20 03:31:00,
2013-03-19 22:32:00,28.2,24.0,30.24,NE,49,4.0,8.0,84,0.00,,,0.00,0,Wunderground v.1.15,2013-03-20 03:32:00,
2013-03-19 22:35:00,28.1,23.9,30.24,NW,321,8.0,8.0,84,0.00,,,0.00,0,Wunderground v.1.15,2013-03-20 03:35:00,
2013-03-19 22:36:00,28.0,23.8,30.24,NW,317,7.0,8.0,84,0.00,,,0.00,0,Wunderground v.1.15,2013-03-20 03:36:00,
2013-03-19 22:38:00,27.9,23.7,30.24,North,355,6.0,11.0,84,0.00,,,0.00,0,Wunderground v.1.15,2013-03-20 03:38:00,
2013-03-19 22:40:00,27.6,23.1,30.24,NW,324,4.0,5.0,83,0.00,,,0.00,0,Wunderground v.1.15,2013-03-20 03:40:00,
2013-03-19 22:42:00,27.5,23.3,30.24,NNE,24,7.0,8.0,84,0.00,,,0.00,0,Wunderground v.1.15,2013-03-20 03:42:00,
2013-03-19 22:44:00,27.4,22.9,30.24,NNE,17,7.0,11.0,83,0.00,,,0.00,0,Wunderground v.1.15,2013-03-20 03:44:00,
2013-03-19 22:46:00,27.2,22.7,30.24,NNW,343,4.0,11.0,83,0.00,,,0.00,0,Wunderground v.1.15,2013-03-20 03:46:00,
2013-03-19 22:47:00,27.1,22.6,30.24,NNE,15,4.0,11.0,83,0.00,,,0.00,0,Wunderground v.1.15,2013-03-20 03:47:00,
2013-03-19 22:49:00,27.0,22.8,30.25,NNW,342,2.0,11.0,84,0.00,,,0.00,0,Wunderground v.1.15,2013-03-20 03:49:00,
2013-03-19 22:50:00,27.0,22.8,30.25,NNW,328,1.0,5.0,84,0.00,,,0.00,0,Wunderground v.1.15,2013-03-20 03:50:00,
2013-03-19 22:51:00,26.9,22.7,30.25,NNW,342,2.0,5.0,84,0.00,,,0.00,0,Wunderground v.1.15,2013-03-20 03:51:00,
2013-03-19 22:53:00,26.8,22.6,30.25,NNE,21,4.0,5.0,84,0.00,,,0.00,0,Wunderground v.1.15,2013-03-20 03:53:00,
2013-03-19 22:55:00,26.7,22.5,30.25,NNW,332,5.0,6.0,84,0.00,,,0.00,0,Wunderground v.1.15,2013-03-20 03:55:00,
2013-03-19 22:56:00,26.7,22.5,30.25,NNW,334,3.0,6.0,84,0.00,,,0.00,0,Wunderground v.1.15,2013-03-20 03:56:00,
2013-03-19 22:57:00,26.6,22.7,30.25,NW,326,5.0,6.0,85,0.00,,,0.00,0,Wunderground v.1.15,2013-03-20 03:57:00,
2013-03-19 22:58:00,26.6,22.7,30.25,North,5,3.0,6.0,85,0.00,,,0.00,0,Wunderground v.1.15,2013-03-20 03:58:00,
2013-03-19 23:00:00,26.6,22.7,30.25,NNE,19,5.0,10.0,85,0.00,,,0.00,0,Wunderground v.1.15,2013-03-20 04:00:00,
2013-03-19 23:02:00,26.6,22.7,30.25,NW,317,9.0,9.0,85,0.00,,,0.00,0,Wunderground v.1.15,2013-03-20 04:02:00,
2013-03-19 23:05:00,26.7,22.8,30.25,North,355,4.0,12.0,85,0.00,,,0.00,0,Wunderground v.1.15,2013-03-20 04:05:00,
2013-03-19 23:06:00,26.8,22.9,30.25,NNW,332,2.0,12.0,85,0.00,,,0.00,0,Wunderground v.1.15,2013-03-20 04:06:00,
2013-03-19 23:07:00,26.8,22.9,30.25,NNE,28,4.0,12.0,85,0.00,,,0.00,0,Wunderground v.1.15,2013-03-20 04:07:00,
2013-03-19 23:10:00,26.9,23.0,30.25,NNW,343,4.0,4.0,85,0.00,,,0.00,0,Wunderground v.1.15,2013-03-20 04:10:00,
2013-03-19 23:11:00,26.9,23.0,30.25,NW,322,5.0,5.0,85,0.00,,,0.00,0,Wunderground v.1.15,2013-03-20 04:11:00,
2013-03-19 23:12:00,27.0,23.1,30.25,NNW,331,6.0,9.0,85,0.00,,,0.00,0,Wunderground v.1.15,2013-03-20 04:12:00,
2013-03-19 23:13:00,27.0,23.1,30.25,NNW,340,9.0,9.0,85,0.00,,,0.00,0,Wunderground v.1.15,2013-03-20 04:13:00,
2013-03-19 23:16:00,27.1,22.9,30.25,NW,321,4.0,12.0,84,0.00,,,0.00,0,Wunderground v.1.15,2013-03-20 04:16:00,
2013-03-19 23:17:00,27.1,22.6,30.25,NNW,334,12.0,12.0,83,0.00,,,0.00,0,Wunderground v.1.15,2013-03-20 04:17:00,
2013-03-19 23:19:00,27.2,22.7,30.25,NNW,328,3.0,12.0,83,0.00,,,0.00,0,Wunderground v.1.15,2013-03-20 04:19:00,
2013-03-19 23:22:00,27.1,22.3,30.25,NNW,331,9.0,11.0,82,0.00,,,0.00,0,Wunderground v.1.15,2013-03-20 04:22:00,
2013-03-19 23:24:00,27.0,21.9,30.26,NNE,15,7.0,11.0,81,0.00,,,0.00,0,Wunderground v.1.15,2013-03-20 04:24:00,
2013-03-19 23:25:00,27.0,21.9,30.26,NNW,327,12.0,12.0,81,0.00,,,0.00,0,Wunderground v.1.15,2013-03-20 04:25:00,
2013-03-19 23:27:00,26.9,21.8,30.26,NNW,342,9.0,12.0,81,0.00,,,0.00,0,Wunderground v.1.15,2013-03-20 04:27:00,
2013-03-19 23:28:00,26.9,21.8,30.26,NNW,331,1.0,12.0,81,0.00,,,0.00,0,Wunderground v.1.15,2013-03-20 04:28:00,
2013-03-19 23:30:00,26.8,21.5,30.26,NW,320,6.0,6.0,80,0.00,,,0.00,0,Wunderground v.1.15,2013-03-20 04:30:00,
2013-03-19 23:31:00,26.7,21.4,30.26,NNW,340,5.0,6.0,80,0.00,,,0.00,0,Wunderground v.1.15,2013-03-20 04:31:00,
2013-03-19 23:34:00,26.7,21.7,30.26,North,355,5.0,13.0,81,0.00,,,0.00,0,Wunderground v.1.15,2013-03-20 04:34:00,
2013-03-19 23:35:00,26.7,21.7,30.26,NNW,344,7.0,13.0,81,0.00,,,0.00,0,Wunderground v.1.15,2013-03-20 04:35:00,
2013-03-19 23:36:00,26.7,21.7,30.26,NNW,327,7.0,13.0,81,0.00,,,0.00,0,Wunderground v.1.15,2013-03-20 04:36:00,
2013-03-19 23:38:00,26.7,21.7,30.26,NNW,338,4.0,13.0,81,0.00,,,0.00,0,Wunderground v.1.15,2013-03-20 04:38:00,
2013-03-19 23:41:00,26.7,21.7,30.26,NW,320,9.0,9.0,81,0.00,,,0.00,0,Wunderground v.1.15,2013-03-20 04:41:00,
2013-03-19 23:42:00,26.7,21.7,30.26,NW,309,6.0,16.0,81,0.00,,,0.00,0,Wunderground v.1.15,2013-03-20 04:42:00,
2013-03-19 23:43:00,26.7,21.7,30.26,NNW,336,6.0,16.0,81,0.00,,,0.00,0,Wunderground v.1.15,2013-03-20 04:43:00,
2013-03-19 23:47:00,26.7,21.7,30.26,NNW,348,4.0,16.0,81,0.00,,,0.00,0,Wunderground v.1.15,2013-03-20 04:47:00,
2013-03-19 23:48:00,26.7,21.7,30.26,NW,312,7.0,16.0,81,0.00,,,0.00,0,Wunderground v.1.15,2013-03-20 04:48:00,
2013-03-19 23:49:00,26.7,21.7,30.25,NW,316,14.0,17.0,81,0.00,,,0.00,0,Wunderground v.1.15,2013-03-20 04:49:00,
2013-03-19 23:53:00,26.8,22.0,30.26,NNW,348,7.0,16.0,82,0.00,,,0.00,0,Wunderground v.1.15,2013-03-20 04:53:00,
2013-03-19 23:54:00,26.8,22.0,30.26,NE,34,4.0,16.0,82,0.00,,,0.00,0,Wunderground v.1.15,2013-03-20 04:54:00,
2013-03-19 23:56:00,26.7,21.7,30.26,North,355,6.0,16.0,81,0.00,,,0.00,0,Wunderground v.1.15,2013-03-20 04:56:00,